Wetterdaten: Donnerstag, 10.11.2022
Datum Zeit Temp. Aussen Temp. o. S. Temp +5cm Feuchte Auss Luftdruck Regen Sonnenschein Regendauer Solar Windben Empfang
10.11.2022 00:00 10,6 C 10,0 C 6,7 C 89 % 1017,2 hPa 0,0 l/m 0 min 0 min 0 W/m 12,9 km/h (3 Bft) 93,62 %
10.11.2022 00:02 10,6 C 9,4 C 6,7 C 89 % 1017,2 hPa 0,0 l/m 0 min 0 min 0 W/m 12,9 km/h (3 Bft) 95,45 %
10.11.2022 00:04 10,6 C 10,0 C 6,7 C 89 % 1017,2 hPa 0,0 l/m 0 min 0 min 0 W/m 16,1 km/h (3 Bft) 97,87 %
10.11.2022 00:08 10,6 C 9,4 C 6,7 C 89 % 1017,3 hPa 0,0 l/m 0 min 0 min 0 W/m 12,9 km/h (3 Bft) 97,56 %
10.11.2022 00:10 10,6 C 9,4 C 6,7 C 89 % 1017,3 hPa 0,0 l/m 0 min 0 min 0 W/m 12,9 km/h (3 Bft) 97,83 %
10.11.2022 00:12 10,6 C 9,4 C 6,7 C 89 % 1017,4 hPa 0,0 l/m 0 min 0 min 0 W/m 9,7 km/h (2 Bft) 97,87 %
10.11.2022 00:14 10,6 C 9,4 C 6,7 C 89 % 1017,4 hPa 0,0 l/m 0 min 0 min 0 W/m 12,9 km/h (3 Bft) 98,11 %
10.11.2022 00:16 10,6 C 9,4 C 6,7 C 89 % 1017,4 hPa 0,0 l/m 0 min 0 min 0 W/m 9,7 km/h (2 Bft) 100,00 %
10.11.2022 00:18 10,6 C 9,4 C 6,7 C 89 % 1017,4 hPa 0,0 l/m 0 min 0 min 0 W/m 16,1 km/h (3 Bft) 100,00 %
10.11.2022 00:20 10,6 C 10,0 C 6,7 C 89 % 1017,4 hPa 0,0 l/m 0 min 0 min 0 W/m 19,3 km/h (3 Bft) 70,21 %
10.11.2022 00:22 10,6 C 10,0 C 6,7 C 89 % 1017,5 hPa 0,0 l/m 0 min 0 min 0 W/m 12,9 km/h (3 Bft) 83,33 %
10.11.2022 00:24 10,6 C 9,4 C 6,7 C 89 % 1017,5 hPa 0,0 l/m 0 min 0 min 0 W/m 6,4 km/h (2 Bft) 97,87 %
10.11.2022 00:26 10,6 C 9,4 C 6,7 C 89 % 1017,6 hPa 0,0 l/m 0 min 0 min 0 W/m 6,4 km/h (2 Bft) 97,87 %
10.11.2022 00:28 10,6 C 9,4 C 6,7 C 89 % 1017,6 hPa 0,0 l/m 0 min 0 min 0 W/m 9,7 km/h (2 Bft) 100,00 %
10.11.2022 00:30 10,5 C 9,4 C 6,7 C 89 % 1017,6 hPa 0,0 l/m 0 min 0 min 0 W/m 9,7 km/h (2 Bft) 100,00 %
10.11.2022 00:32 10,5 C 9,4 C 6,7 C 89 % 1017,6 hPa 0,0 l/m 0 min 0 min 0 W/m 6,4 km/h (2 Bft) 100,00 %
10.11.2022 00:34 10,5 C 9,4 C 6,1 C 89 % 1017,6 hPa 0,0 l/m 0 min 0 min 0 W/m 6,4 km/h (2 Bft) 100,00 %
10.11.2022 00:36 10,5 C 9,4 C 6,1 C 89 % 1017,6 hPa 0,0 l/m 0 min 0 min 0 W/m 16,1 km/h (3 Bft) 100,00 %
10.11.2022 00:38 10,5 C 9,4 C 6,1 C 89 % 1017,7 hPa 0,0 l/m 0 min 0 min 0 W/m 6,4 km/h (2 Bft) 100,00 %
10.11.2022 00:40 10,5 C 9,4 C 6,1 C 89 % 1017,7 hPa 0,0 l/m 0 min 0 min 0 W/m 12,9 km/h (3 Bft) 100,00 %
10.11.2022 00:42 10,4 C 9,4 C 6,1 C 89 % 1017,8 hPa 0,0 l/m 0 min 0 min 0 W/m 6,4 km/h (2 Bft) 100,00 %
10.11.2022 00:44 10,4 C 9,4 C 6,1 C 90 % 1017,8 hPa 0,0 l/m 0 min 0 min 0 W/m 6,4 km/h (2 Bft) 97,83 %
10.11.2022 00:46 10,4 C 9,4 C 6,1 C 90 % 1017,8 hPa 0,0 l/m 0 min 0 min 0 W/m 9,7 km/h (2 Bft) 100,00 %
10.11.2022 00:48 10,4 C 9,4 C 6,1 C 90 % 1017,9 hPa 0,0 l/m 0 min 0 min 0 W/m 12,9 km/h (3 Bft) 100,00 %
10.11.2022 00:50 10,4 C 9,4 C 6,1 C 90 % 1017,9 hPa 0,0 l/m 0 min 0 min 0 W/m 6,4 km/h (2 Bft) 100,00 %
10.11.2022 00:52 10,4 C 9,4 C 6,1 C 90 % 1017,9 hPa 0,0 l/m 0 min 0 min 0 W/m 6,4 km/h (2 Bft) 100,00 %
10.11.2022 00:54 10,4 C 9,4 C 6,1 C 90 % 1018,0 hPa 0,0 l/m 0 min 0 min 0 W/m 16,1 km/h (3 Bft) 100,00 %
10.11.2022 00:56 10,4 C 9,4 C 6,1 C 90 % 1018,0 hPa 0,0 l/m 0 min 0 min 0 W/m 6,4 km/h (2 Bft) 97,83 %
10.11.2022 00:58 10,4 C 9,4 C 6,1 C 90 % 1018,1 hPa 0,0 l/m 0 min 0 min 0 W/m 12,9 km/h (3 Bft) 100,00 %
10.11.2022 01:00 10,4 C 9,4 C 6,1 C 90 % 1018,1 hPa 0,0 l/m 0 min 0 min 0 W/m 12,9 km/h (3 Bft) 100,00 %
10.11.2022 01:02 10,4 C 9,4 C 6,1 C 90 % 1018,0 hPa 0,0 l/m 0 min 0 min 0 W/m 12,9 km/h (3 Bft) 97,56 %
10.11.2022 01:04 10,4 C 9,4 C 6,1 C 90 % 1018,2 hPa 0,0 l/m 0 min 0 min 0 W/m 6,4 km/h (2 Bft) 100,00 %
10.11.2022 01:06 10,4 C 9,4 C 6,1 C 90 % 1018,2 hPa 0,0 l/m 0 min 0 min 0 W/m 9,7 km/h (2 Bft) 100,00 %
10.11.2022 01:08 10,4 C 9,4 C 6,1 C 90 % 1018,2 hPa 0,0 l/m 0 min 0 min 0 W/m 6,4 km/h (2 Bft) 97,83 %
10.11.2022 01:10 10,4 C 9,4 C 6,1 C 90 % 1018,3 hPa 0,0 l/m 0 min 0 min 0 W/m 6,4 km/h (2 Bft) 97,87 %
10.11.2022 01:12 10,4 C 9,4 C 6,1 C 90 % 1018,3 hPa 0,0 l/m 0 min 0 min 0 W/m 6,4 km/h (2 Bft) 97,87 %
10.11.2022 01:14 10,4 C 9,4 C 6,1 C 90 % 1018,2 hPa 0,0 l/m 0 min 0 min 0 W/m 12,9 km/h (3 Bft) 100,00 %
10.11.2022 01:16 10,4 C 9,4 C 6,1 C 90 % 1018,2 hPa 0,0 l/m 0 min 0 min 0 W/m 12,9 km/h (3 Bft) 97,87 %
10.11.2022 01:18 10,4 C 9,4 C 6,1 C 90 % 1018,2 hPa 0,0 l/m 0 min 0 min 0 W/m 6,4 km/h (2 Bft) 97,87 %
10.11.2022 01:20 10,4 C 9,4 C 6,1 C 90 % 1018,2 hPa 0,0 l/m 0 min 0 min 0 W/m 22,5 km/h (4 Bft) 97,83 %
10.11.2022 01:22 10,4 C 9,4 C 6,1 C 90 % 1018,2 hPa 0,0 l/m 0 min 0 min 0 W/m 19,3 km/h (3 Bft) 97,87 %
10.11.2022 01:24 10,4 C 9,4 C 6,1 C 90 % 1018,2 hPa 0,0 l/m 0 min 0 min 0 W/m 12,9 km/h (3 Bft) 95,74 %
10.11.2022 01:26 10,4 C 9,4 C 6,1 C 90 % 1018,2 hPa 0,0 l/m 0 min 0 min 0 W/m 12,9 km/h (3 Bft) 97,87 %
10.11.2022 01:28 10,4 C 9,4 C 6,1 C 90 % 1018,2 hPa 0,0 l/m 0 min 0 min 0 W/m 12,9 km/h (3 Bft) 97,87 %
10.11.2022 01:30 10,4 C 9,4 C 6,1 C 90 % 1018,3 hPa 0,0 l/m 0 min 0 min 0 W/m 12,9 km/h (3 Bft) 97,87 %
10.11.2022 01:32 10,4 C 9,4 C 6,1 C 90 % 1018,4 hPa 0,0 l/m 0 min 0 min 0 W/m 12,9 km/h (3 Bft) 95,65 %
10.11.2022 01:34 10,4 C 9,4 C 6,1 C 90 % 1018,5 hPa 0,0 l/m 0 min 0 min 0 W/m 19,3 km/h (3 Bft) 95,74 %
10.11.2022 01:36 10,4 C 9,4 C 6,1 C 90 % 1018,4 hPa 0,0 l/m 0 min 0 min 0 W/m 12,9 km/h (3 Bft) 95,74 %
10.11.2022 01:38 10,3 C 9,4 C 6,1 C 90 % 1018,5 hPa 0,0 l/m 0 min 0 min 0 W/m 22,5 km/h (4 Bft) 95,74 %
10.11.2022 01:40 10,3 C 9,4 C 6,1 C 90 % 1018,5 hPa 0,0 l/m 0 min 0 min 0 W/m 9,7 km/h (2 Bft) 93,62 %
10.11.2022 01:42 10,3 C 9,4 C 6,1 C 90 % 1018,5 hPa 0,0 l/m 0 min 0 min 0 W/m 16,1 km/h (3 Bft) 93,62 %
10.11.2022 01:44 10,3 C 9,4 C 6,1 C 90 % 1018,5 hPa 0,0 l/m 0 min 0 min 0 W/m 9,7 km/h (2 Bft) 95,65 %
10.11.2022 01:46 10,3 C 9,4 C 6,1 C 90 % 1018,5 hPa 0,0 l/m 0 min 0 min 0 W/m 9,7 km/h (2 Bft) 95,74 %
10.11.2022 01:48 10,3 C 9,4 C 6,1 C 90 % 1018,5 hPa 0,0 l/m 0 min 0 min 0 W/m 12,9 km/h (3 Bft) 95,74 %
10.11.2022 01:50 10,3 C 9,4 C 6,1 C 90 % 1018,6 hPa 0,0 l/m 0 min 0 min 0 W/m 19,3 km/h (3 Bft) 95,74 %
10.11.2022 01:52 10,2 C 9,4 C 6,1 C 90 % 1018,5 hPa 0,0 l/m 0 min 0 min 0 W/m 9,7 km/h (2 Bft) 93,62 %
10.11.2022 01:54 10,2 C 9,4 C 6,1 C 90 % 1018,5 hPa 0,0 l/m 0 min 0 min 0 W/m 12,9 km/h (3 Bft) 95,74 %
10.11.2022 01:56 10,2 C 9,4 C 6,1 C 90 % 1018,6 hPa 0,0 l/m 0 min 0 min 0 W/m 12,9 km/h (3 Bft) 95,65 %
10.11.2022 01:58 10,2 C 9,4 C 6,1 C 90 % 1018,6 hPa 0,0 l/m 0 min 0 min 0 W/m 22,5 km/h (4 Bft) 93,62 %
10.11.2022 02:00 10,2 C 9,4 C 6,1 C 90 % 1018,5 hPa 0,0 l/m 0 min 0 min 0 W/m 12,9 km/h (3 Bft) 100,00 %
10.11.2022 02:02 10,2 C 9,4 C 6,1 C 90 % 1018,6 hPa 0,0 l/m 0 min 0 min 0 W/m 16,1 km/h (3 Bft) 100,00 %
10.11.2022 02:04 10,2 C 9,4 C 6,1 C 90 % 1018,6 hPa 0,0 l/m 0 min 0 min 0 W/m 19,3 km/h (3 Bft) 100,00 %
10.11.2022 02:06 10,2 C 9,4 C 6,1 C 90 % 1018,6 hPa 0,0 l/m 0 min 0 min 0 W/m 16,1 km/h (3 Bft) 98,28 %
10.11.2022 02:08 10,2 C 9,4 C 6,1 C 90 % 1018,6 hPa 0,0 l/m 0 min 0 min 0 W/m 12,9 km/h (3 Bft) 100,00 %
10.11.2022 02:10 10,2 C 9,4 C 6,1 C 90 % 1018,6 hPa 0,0 l/m 0 min 0 min 0 W/m 19,3 km/h (3 Bft) 100,00 %
10.11.2022 02:14 10,2 C 9,4 C 6,1 C 90 % 1018,6 hPa 0,0 l/m 0 min 0 min 0 W/m 6,4 km/h (2 Bft) 100,00 %
10.11.2022 02:16 10,2 C 9,4 C 6,1 C 90 % 1018,6 hPa 0,0 l/m 0 min 0 min 0 W/m 12,9 km/h (3 Bft) 93,62 %
10.11.2022 02:18 10,1 C 9,4 C 6,1 C 90 % 1018,6 hPa 0,0 l/m 0 min 0 min 0 W/m 9,7 km/h (2 Bft) 93,62 %
10.11.2022 02:20 10,1 C 9,4 C 6,1 C 90 % 1018,7 hPa 0,0 l/m 0 min 0 min 0 W/m 12,9 km/h (3 Bft) 95,74 %
10.11.2022 02:22 10,1 C 8,9 C 6,1 C 91 % 1018,7 hPa 0,0 l/m 0 min 0 min 0 W/m 12,9 km/h (3 Bft) 97,83 %
10.11.2022 02:24 10,1 C 8,9 C 6,1 C 91 % 1018,8 hPa 0,0 l/m 0 min 0 min 0 W/m 19,3 km/h (3 Bft) 97,87 %
10.11.2022 02:26 10,1 C 8,9 C 6,1 C 91 % 1018,8 hPa 0,0 l/m 0 min 0 min 0 W/m 12,9 km/h (3 Bft) 97,87 %
10.11.2022 02:28 10,1 C 9,4 C 6,1 C 90 % 1018,9 hPa 0,0 l/m 0 min 0 min 0 W/m 9,7 km/h (2 Bft) 97,87 %
10.11.2022 02:30 10,1 C 9,4 C 6,1 C 91 % 1018,8 hPa 0,0 l/m 0 min 0 min 0 W/m 12,9 km/h (3 Bft) 97,87 %
10.11.2022 02:32 10,1 C 8,9 C 6,1 C 91 % 1018,8 hPa 0,0 l/m 0 min 0 min 0 W/m 12,9 km/h (3 Bft) 93,48 %
10.11.2022 02:34 10,1 C 9,4 C 6,1 C 91 % 1018,9 hPa 0,0 l/m 0 min 0 min 0 W/m 9,7 km/h (2 Bft) 95,74 %
10.11.2022 02:36 10,1 C 9,4 C 6,1 C 91 % 1018,9 hPa 0,0 l/m 0 min 0 min 0 W/m 12,9 km/h (3 Bft) 95,74 %
10.11.2022 02:38 10,0 C 8,9 C 6,1 C 91 % 1018,9 hPa 0,0 l/m 0 min 0 min 0 W/m 16,1 km/h (3 Bft) 97,87 %
10.11.2022 02:40 10,0 C 8,9 C 6,1 C 91 % 1018,9 hPa 0,0 l/m 0 min 0 min 0 W/m 16,1 km/h (3 Bft) 95,74 %
10.11.2022 02:42 10,0 C 8,9 C 6,1 C 91 % 1018,9 hPa 0,0 l/m 0 min 0 min 0 W/m 16,1 km/h (3 Bft) 95,74 %
10.11.2022 02:44 10,0 C 8,9 C 6,1 C 91 % 1018,9 hPa 0,0 l/m 0 min 0 min 0 W/m 9,7 km/h (2 Bft) 97,83 %
10.11.2022 02:46 10,0 C 8,9 C 6,1 C 91 % 1019,0 hPa 0,0 l/m 0 min 0 min 0 W/m 12,9 km/h (3 Bft) 97,87 %
10.11.2022 02:48 9,9 C 8,9 C 6,1 C 91 % 1019,0 hPa 0,0 l/m 0 min 0 min 0 W/m 12,9 km/h (3 Bft) 97,87 %
10.11.2022 02:50 9,9 C 8,9 C 6,1 C 91 % 1019,0 hPa 0,0 l/m 0 min 0 min 0 W/m 12,9 km/h (3 Bft) 95,74 %
10.11.2022 02:52 10,0 C 9,4 C 6,1 C 91 % 1019,2 hPa 0,0 l/m 0 min 0 min 0 W/m 12,9 km/h (3 Bft) 97,87 %
10.11.2022 02:54 10,0 C 8,9 C 6,1 C 91 % 1019,1 hPa 0,0 l/m 0 min 0 min 0 W/m 9,7 km/h (2 Bft) 95,74 %
10.11.2022 02:56 9,9 C 8,9 C 6,1 C 91 % 1019,2 hPa 0,0 l/m 0 min 0 min 0 W/m 6,4 km/h (2 Bft) 95,65 %
10.11.2022 02:58 9,9 C 8,9 C 6,1 C 91 % 1019,2 hPa 0,0 l/m 0 min 0 min 0 W/m 6,4 km/h (2 Bft) 97,87 %
10.11.2022 03:00 9,9 C 8,9 C 6,1 C 91 % 1019,2 hPa 0,0 l/m 0 min 0 min 0 W/m 12,9 km/h (3 Bft) 97,87 %
10.11.2022 03:02 9,9 C 8,9 C 6,1 C 91 % 1019,2 hPa 0,0 l/m 0 min 0 min 0 W/m 12,9 km/h (3 Bft) 97,87 %
10.11.2022 03:04 9,9 C 8,9 C 6,1 C 91 % 1019,2 hPa 0,0 l/m 0 min 0 min 0 W/m 6,4 km/h (2 Bft) 97,87 %
10.11.2022 03:06 9,9 C 8,9 C 6,1 C 91 % 1019,3 hPa 0,0 l/m 0 min 0 min 0 W/m 6,4 km/h (2 Bft) 95,74 %
10.11.2022 03:08 9,9 C 8,9 C 6,1 C 91 % 1019,3 hPa 0,0 l/m 0 min 0 min 0 W/m 12,9 km/h (3 Bft) 97,83 %
10.11.2022 03:10 9,9 C 8,9 C 6,1 C 91 % 1019,3 hPa 0,0 l/m 0 min 0 min 0 W/m 16,1 km/h (3 Bft) 97,87 %
10.11.2022 03:12 9,9 C 8,9 C 6,1 C 91 % 1019,3 hPa 0,0 l/m 0 min 0 min 0 W/m 19,3 km/h (3 Bft) 97,87 %
10.11.2022 03:14 9,9 C 8,9 C 6,1 C 91 % 1019,3 hPa 0,0 l/m 0 min 0 min 0 W/m 12,9 km/h (3 Bft) 100,00 %
10.11.2022 03:16 9,9 C 8,9 C 6,1 C 91 % 1019,3 hPa 0,0 l/m 0 min 0 min 0 W/m 19,3 km/h (3 Bft) 100,00 %
10.11.2022 03:18 9,9 C 8,9 C 6,1 C 91 % 1019,4 hPa 0,0 l/m 0 min 0 min 0 W/m 16,1 km/h (3 Bft) 100,00 %
10.11.2022 03:20 9,9 C 8,9 C 6,1 C 91 % 1019,4 hPa 0,0 l/m 0 min 0 min 0 W/m 16,1 km/h (3 Bft) 93,48 %
10.11.2022 03:22 9,9 C 8,9 C 6,1 C 91 % 1019,4 hPa 0,0 l/m 0 min 0 min 0 W/m 12,9 km/h (3 Bft) 97,87 %
10.11.2022 03:24 9,9 C 8,9 C 6,1 C 91 % 1019,4 hPa 0,0 l/m 0 min 0 min 0 W/m 19,3 km/h (3 Bft) 97,87 %
10.11.2022 03:26 9,9 C 8,9 C 6,1 C 91 % 1019,4 hPa 0,0 l/m 0 min 0 min 0 W/m 19,3 km/h (3 Bft) 97,87 %
10.11.2022 03:28 9,9 C 8,9 C 6,1 C 91 % 1019,4 hPa 0,0 l/m 0 min 0 min 0 W/m 16,1 km/h (3 Bft) 93,62 %
10.11.2022 03:30 9,9 C 8,9 C 6,1 C 91 % 1019,4 hPa 0,0 l/m 0 min 0 min 0 W/m 16,1 km/h (3 Bft) 97,87 %
10.11.2022 03:32 9,9 C 8,9 C 6,1 C 91 % 1019,4 hPa 0,0 l/m 0 min 0 min 0 W/m 12,9 km/h (3 Bft) 97,83 %
10.11.2022 03:34 9,8 C 8,9 C 5,6 C 91 % 1019,3 hPa 0,0 l/m 0 min 0 min 0 W/m 9,7 km/h (2 Bft) 95,74 %
10.11.2022 03:36 9,8 C 8,9 C 5,6 C 91 % 1019,3 hPa 0,0 l/m 0 min 0 min 0 W/m 16,1 km/h (3 Bft) 95,74 %
10.11.2022 03:38 9,8 C 8,9 C 5,6 C 91 % 1019,3 hPa 0,0 l/m 0 min 0 min 0 W/m 19,3 km/h (3 Bft) 97,87 %
10.11.2022 03:40 9,8 C 8,9 C 5,6 C 91 % 1019,3 hPa 0,0 l/m 0 min 0 min 0 W/m 16,1 km/h (3 Bft) 97,87 %
10.11.2022 03:42 9,8 C 8,9 C 5,6 C 91 % 1019,3 hPa 0,0 l/m 0 min 0 min 0 W/m 12,9 km/h (3 Bft) 97,87 %
10.11.2022 03:44 9,8 C 8,9 C 5,6 C 91 % 1019,3 hPa 0,0 l/m 0 min 0 min 0 W/m 16,1 km/h (3 Bft) 93,48 %
10.11.2022 03:46 9,8 C 8,9 C 5,6 C 91 % 1019,3 hPa 0,0 l/m 0 min 0 min 0 W/m 16,1 km/h (3 Bft) 95,74 %
10.11.2022 03:48 9,8 C 8,9 C 5,6 C 91 % 1019,4 hPa 0,0 l/m 0 min 0 min 0 W/m 16,1 km/h (3 Bft) 95,74 %
10.11.2022 03:50 9,8 C 8,9 C 6,1 C 92 % 1019,3 hPa 0,0 l/m 0 min 0 min 0 W/m 16,1 km/h (3 Bft) 95,74 %
10.11.2022 03:52 9,8 C 8,9 C 6,1 C 91 % 1019,4 hPa 0,0 l/m 0 min 0 min 0 W/m 12,9 km/h (3 Bft) 97,87 %
10.11.2022 03:54 9,8 C 8,9 C 6,1 C 91 % 1019,4 hPa 0,0 l/m 0 min 0 min 0 W/m 19,3 km/h (3 Bft) 97,87 %
10.11.2022 03:56 9,8 C 8,9 C 6,1 C 91 % 1019,5 hPa 0,0 l/m 0 min 0 min 0 W/m 12,9 km/h (3 Bft) 97,83 %
10.11.2022 03:58 9,8 C 8,9 C 6,1 C 91 % 1019,6 hPa 0,0 l/m 0 min 0 min 0 W/m 16,1 km/h (3 Bft) 97,87 %
10.11.2022 04:00 9,8 C 8,9 C 5,6 C 91 % 1019,6 hPa 0,0 l/m 0 min 0 min 0 W/m 16,1 km/h (3 Bft) 100,00 %
10.11.2022 04:02 9,8 C 8,9 C 5,6 C 91 % 1019,7 hPa 0,0 l/m 0 min 0 min 0 W/m 16,1 km/h (3 Bft) 95,74 %
10.11.2022 04:04 9,8 C 8,9 C 6,1 C 92 % 1019,6 hPa 0,0 l/m 0 min 0 min 0 W/m 19,3 km/h (3 Bft) 97,87 %
10.11.2022 04:06 9,8 C 8,9 C 6,1 C 92 % 1019,8 hPa 0,0 l/m 0 min 0 min 0 W/m 16,1 km/h (3 Bft) 93,62 %
10.11.2022 04:08 9,8 C 8,9 C 5,6 C 92 % 1019,7 hPa 0,0 l/m 0 min 0 min 0 W/m 9,7 km/h (2 Bft) 95,65 %
10.11.2022 04:10 9,8 C 8,9 C 5,6 C 92 % 1019,9 hPa 0,0 l/m 0 min 0 min 0 W/m 16,1 km/h (3 Bft) 97,87 %
10.11.2022 04:12 9,8 C 8,9 C 5,6 C 92 % 1019,8 hPa 0,0 l/m 0 min 0 min 0 W/m 22,5 km/h (4 Bft) 97,87 %
10.11.2022 04:14 9,8 C 8,9 C 5,6 C 92 % 1019,7 hPa 0,0 l/m 0 min 0 min 0 W/m 16,1 km/h (3 Bft) 95,74 %
10.11.2022 04:16 9,8 C 8,9 C 5,6 C 92 % 1019,7 hPa 0,0 l/m 0 min 0 min 0 W/m 12,9 km/h (3 Bft) 95,74 %
10.11.2022 04:18 9,8 C 8,9 C 5,6 C 92 % 1019,7 hPa 0,0 l/m 0 min 0 min 0 W/m 16,1 km/h (3 Bft) 97,87 %
10.11.2022 04:20 9,8 C 8,9 C 6,1 C 92 % 1019,6 hPa 0,0 l/m 0 min 0 min 0 W/m 16,1 km/h (3 Bft) 95,65 %
10.11.2022 04:22 9,8 C 8,9 C 6,1 C 92 % 1019,7 hPa 0,0 l/m 0 min 0 min 0 W/m 16,1 km/h (3 Bft) 93,62 %
10.11.2022 04:24 9,8 C 8,9 C 6,1 C 92 % 1019,6 hPa 0,0 l/m 0 min 0 min 0 W/m 22,5 km/h (4 Bft) 97,87 %
10.11.2022 04:26 9,8 C 8,9 C 6,1 C 92 % 1019,6 hPa 0,0 l/m 0 min 0 min 0 W/m 32,2 km/h (5 Bft) 97,87 %
10.11.2022 04:28 9,8 C 8,9 C 6,1 C 92 % 1019,7 hPa 0,0 l/m 0 min 0 min 0 W/m 19,3 km/h (3 Bft) 100,00 %
10.11.2022 04:30 9,8 C 8,9 C 6,1 C 92 % 1019,8 hPa 0,0 l/m 0 min 0 min 0 W/m 16,1 km/h (3 Bft) 97,87 %
10.11.2022 04:32 9,8 C 8,9 C 6,1 C 92 % 1019,9 hPa 0,0 l/m 0 min 0 min 0 W/m 16,1 km/h (3 Bft) 93,48 %
10.11.2022 04:34 9,8 C 8,9 C 6,1 C 92 % 1019,9 hPa 0,0 l/m 0 min 0 min 0 W/m 9,7 km/h (2 Bft) 100,00 %
10.11.2022 04:36 9,8 C 8,9 C 6,1 C 92 % 1019,9 hPa 0,0 l/m 0 min 0 min 0 W/m 16,1 km/h (3 Bft) 100,00 %
10.11.2022 04:38 9,8 C 8,9 C 6,1 C 92 % 1019,8 hPa 0,0 l/m 0 min 0 min 0 W/m 16,1 km/h (3 Bft) 95,74 %
10.11.2022 04:40 9,8 C 8,9 C 6,1 C 92 % 1019,8 hPa 0,0 l/m 0 min 0 min 0 W/m 19,3 km/h (3 Bft) 100,00 %
10.11.2022 04:42 9,8 C 8,9 C 6,1 C 92 % 1019,9 hPa 0,0 l/m 0 min 0 min 0 W/m 22,5 km/h (4 Bft) 100,00 %
10.11.2022 04:44 9,8 C 8,9 C 6,1 C 92 % 1020,1 hPa 0,0 l/m 0 min 0 min 0 W/m 19,3 km/h (3 Bft) 95,65 %
10.11.2022 04:46 9,8 C 8,9 C 6,1 C 92 % 1020,1 hPa 0,0 l/m 0 min 0 min 0 W/m 16,1 km/h (3 Bft) 100,00 %
10.11.2022 04:48 9,8 C 8,9 C 6,1 C 92 % 1020,1 hPa 0,0 l/m 0 min 0 min 0 W/m 22,5 km/h (4 Bft) 100,00 %
10.11.2022 04:50 9,8 C 8,9 C 6,1 C 92 % 1020,2 hPa 0,0 l/m 0 min 0 min 0 W/m 19,3 km/h (3 Bft) 97,87 %
10.11.2022 04:52 9,8 C 8,9 C 6,1 C 92 % 1020,1 hPa 0,0 l/m 0 min 0 min 0 W/m 19,3 km/h (3 Bft) 100,00 %
10.11.2022 04:54 9,8 C 8,9 C 6,1 C 92 % 1020,2 hPa 0,0 l/m 0 min 0 min 0 W/m 16,1 km/h (3 Bft) 95,65 %
10.11.2022 04:56 9,8 C 8,9 C 6,1 C 92 % 1020,2 hPa 0,0 l/m 0 min 0 min 0 W/m 9,7 km/h (2 Bft) 95,74 %
10.11.2022 04:58 9,8 C 8,9 C 6,1 C 92 % 1020,3 hPa 0,0 l/m 0 min 0 min 0 W/m 19,3 km/h (3 Bft) 100,00 %
10.11.2022 05:00 9,8 C 8,9 C 6,1 C 92 % 1020,4 hPa 0,0 l/m 0 min 0 min 0 W/m 19,3 km/h (3 Bft) 100,00 %
10.11.2022 05:02 9,8 C 8,9 C 5,6 C 92 % 1020,4 hPa 0,0 l/m 0 min 0 min 0 W/m 12,9 km/h (3 Bft) 97,87 %
10.11.2022 05:04 9,8 C 8,9 C 5,6 C 92 % 1020,4 hPa 0,0 l/m 0 min 0 min 0 W/m 19,3 km/h (3 Bft) 100,00 %
10.11.2022 05:06 9,8 C 8,9 C 5,6 C 92 % 1020,4 hPa 0,0 l/m 0 min 0 min 0 W/m 19,3 km/h (3 Bft) 97,87 %
10.11.2022 05:08 9,7 C 8,9 C 5,6 C 92 % 1020,4 hPa 0,0 l/m 0 min 0 min 0 W/m 16,1 km/h (3 Bft) 97,83 %
10.11.2022 05:10 9,7 C 8,9 C 5,6 C 92 % 1020,5 hPa 0,0 l/m 0 min 0 min 0 W/m 12,9 km/h (3 Bft) 100,00 %
10.11.2022 05:12 9,7 C 8,9 C 5,6 C 92 % 1020,6 hPa 0,0 l/m 0 min 0 min 0 W/m 12,9 km/h (3 Bft) 97,87 %
10.11.2022 05:14 9,7 C 8,9 C 5,6 C 92 % 1020,6 hPa 0,0 l/m 0 min 0 min 0 W/m 12,9 km/h (3 Bft) 93,62 %
10.11.2022 05:16 9,7 C 8,9 C 5,6 C 92 % 1020,6 hPa 0,0 l/m 0 min 0 min 0 W/m 12,9 km/h (3 Bft) 97,87 %
10.11.2022 05:18 9,7 C 8,9 C 5,6 C 92 % 1020,6 hPa 0,0 l/m 0 min 0 min 0 W/m 12,9 km/h (3 Bft) 97,87 %
10.11.2022 05:20 9,7 C 8,9 C 5,6 C 92 % 1020,6 hPa 0,0 l/m 0 min 0 min 0 W/m 16,1 km/h (3 Bft) 93,48 %
10.11.2022 05:22 9,7 C 8,9 C 5,6 C 92 % 1020,6 hPa 0,0 l/m 0 min 0 min 0 W/m 16,1 km/h (3 Bft) 95,74 %
10.11.2022 05:24 9,7 C 8,9 C 5,6 C 92 % 1020,6 hPa 0,0 l/m 0 min 0 min 0 W/m 16,1 km/h (3 Bft) 95,74 %
10.11.2022 05:26 9,7 C 8,9 C 5,6 C 92 % 1020,6 hPa 0,0 l/m 0 min 0 min 0 W/m 19,3 km/h (3 Bft) 89,36 %
10.11.2022 05:28 9,6 C 8,9 C 5,6 C 92 % 1020,7 hPa 0,0 l/m 0 min 0 min 0 W/m 12,9 km/h (3 Bft) 89,36 %
10.11.2022 05:30 9,6 C 8,9 C 5,6 C 92 % 1020,7 hPa 0,0 l/m 0 min 0 min 0 W/m 16,1 km/h (3 Bft) 40,00 %
10.11.2022 05:32 9,6 C 8,9 C 5,6 C 92 % 1020,7 hPa 0,0 l/m 0 min 0 min 0 W/m 12,9 km/h (3 Bft) 95,65 %
10.11.2022 05:34 9,6 C 8,9 C 5,6 C 92 % 1020,8 hPa 0,0 l/m 0 min 0 min 0 W/m 19,3 km/h (3 Bft) 95,74 %
10.11.2022 05:36 9,6 C 8,9 C 5,6 C 92 % 1020,8 hPa 0,0 l/m 0 min 0 min 0 W/m 16,1 km/h (3 Bft) 95,74 %
10.11.2022 05:38 9,6 C 8,9 C 5,6 C 92 % 1020,7 hPa 0,0 l/m 0 min 0 min 0 W/m 22,5 km/h (4 Bft) 95,74 %
10.11.2022 05:40 9,6 C 8,9 C 5,6 C 92 % 1020,8 hPa 0,0 l/m 0 min 0 min 0 W/m 12,9 km/h (3 Bft) 95,74 %
10.11.2022 05:42 9,6 C 8,9 C 5,6 C 92 % 1020,7 hPa 0,0 l/m 0 min 0 min 0 W/m 12,9 km/h (3 Bft) 97,87 %
10.11.2022 05:44 9,6 C 8,9 C 5,6 C 92 % 1020,8 hPa 0,0 l/m 0 min 0 min 0 W/m 16,1 km/h (3 Bft) 95,65 %
10.11.2022 05:46 9,6 C 8,9 C 5,6 C 92 % 1020,9 hPa 0,0 l/m 0 min 0 min 0 W/m 12,9 km/h (3 Bft) 97,87 %
10.11.2022 05:48 9,6 C 8,9 C 5,6 C 92 % 1021,0 hPa 0,0 l/m 0 min 0 min 0 W/m 19,3 km/h (3 Bft) 97,87 %
10.11.2022 05:50 9,6 C 8,9 C 5,6 C 92 % 1021,0 hPa 0,0 l/m 0 min 0 min 0 W/m 12,9 km/h (3 Bft) 95,74 %
10.11.2022 05:52 9,6 C 8,9 C 5,6 C 92 % 1021,1 hPa 0,0 l/m 0 min 0 min 0 W/m 12,9 km/h (3 Bft) 95,74 %
10.11.2022 05:54 9,6 C 8,9 C 5,6 C 92 % 1021,2 hPa 0,0 l/m 0 min 0 min 0 W/m 16,1 km/h (3 Bft) 97,87 %
10.11.2022 05:56 9,6 C 8,9 C 5,6 C 92 % 1021,1 hPa 0,0 l/m 0 min 0 min 0 W/m 12,9 km/h (3 Bft) 97,83 %
10.11.2022 05:58 9,6 C 8,9 C 5,6 C 92 % 1021,1 hPa 0,0 l/m 0 min 0 min 0 W/m 16,1 km/h (3 Bft) 95,74 %
10.11.2022 06:00 9,6 C 8,9 C 5,6 C 93 % 1021,1 hPa 0,0 l/m 0 min 0 min 0 W/m 16,1 km/h (3 Bft) 97,87 %
10.11.2022 06:02 9,6 C 8,9 C 5,6 C 93 % 1021,1 hPa 0,0 l/m 0 min 0 min 0 W/m 16,1 km/h (3 Bft) 93,62 %
10.11.2022 06:04 9,6 C 8,9 C 5,6 C 93 % 1021,2 hPa 0,0 l/m 0 min 0 min 0 W/m 12,9 km/h (3 Bft) 97,96 %
10.11.2022 06:08 9,6 C 8,9 C 5,6 C 93 % 1021,2 hPa 0,0 l/m 0 min 0 min 0 W/m 16,1 km/h (3 Bft) 97,85 %
10.11.2022 06:10 9,6 C 8,9 C 5,6 C 93 % 1021,2 hPa 0,0 l/m 0 min 0 min 0 W/m 16,1 km/h (3 Bft) 95,74 %
10.11.2022 06:12 9,6 C 8,9 C 5,6 C 93 % 1021,4 hPa 0,0 l/m 0 min 0 min 0 W/m 16,1 km/h (3 Bft) 100,00 %
10.11.2022 06:14 9,6 C 8,9 C 5,6 C 93 % 1021,3 hPa 0,0 l/m 0 min 0 min 0 W/m 16,1 km/h (3 Bft) 97,87 %
10.11.2022 06:16 9,6 C 8,9 C 5,6 C 93 % 1021,4 hPa 0,0 l/m 0 min 0 min 0 W/m 12,9 km/h (3 Bft) 100,00 %
10.11.2022 06:18 9,6 C 8,3 C 5,6 C 93 % 1021,4 hPa 0,0 l/m 0 min 0 min 0 W/m 9,7 km/h (2 Bft) 97,83 %
10.11.2022 06:20 9,5 C 8,3 C 5,6 C 93 % 1021,4 hPa 0,0 l/m 0 min 0 min 0 W/m 12,9 km/h (3 Bft) 97,87 %
10.11.2022 06:22 9,5 C 8,3 C 5,6 C 93 % 1021,5 hPa 0,0 l/m 0 min 0 min 0 W/m 12,9 km/h (3 Bft) 97,87 %
10.11.2022 06:24 9,5 C 8,3 C 5,6 C 93 % 1021,5 hPa 0,0 l/m 0 min 0 min 0 W/m 16,1 km/h (3 Bft) 97,87 %
10.11.2022 06:26 9,4 C 8,3 C 5,6 C 93 % 1021,6 hPa 0,0 l/m 0 min 0 min 0 W/m 16,1 km/h (3 Bft) 95,74 %
10.11.2022 06:28 9,4 C 8,3 C 5,6 C 93 % 1021,6 hPa 0,0 l/m 0 min 0 min 0 W/m 6,4 km/h (2 Bft) 95,74 %
10.11.2022 06:30 9,4 C 8,3 C 5,6 C 93 % 1021,7 hPa 0,0 l/m 0 min 0 min 0 W/m 19,3 km/h (3 Bft) 97,83 %
10.11.2022 06:32 9,4 C 8,3 C 5,6 C 93 % 1021,6 hPa 0,0 l/m 0 min 0 min 0 W/m 12,9 km/h (3 Bft) 97,87 %
10.11.2022 06:34 9,4 C 8,3 C 5,6 C 93 % 1021,6 hPa 0,0 l/m 0 min 0 min 0 W/m 12,9 km/h (3 Bft) 97,87 %
10.11.2022 06:36 9,4 C 8,3 C 5,6 C 93 % 1021,7 hPa 0,0 l/m 0 min 0 min 0 W/m 16,1 km/h (3 Bft) 97,87 %
10.11.2022 06:38 9,4 C 8,3 C 5,6 C 93 % 1021,6 hPa 0,0 l/m 0 min 0 min 0 W/m 12,9 km/h (3 Bft) 95,74 %
10.11.2022 06:40 9,4 C 8,3 C 5,6 C 93 % 1021,6 hPa 0,0 l/m 0 min 0 min 0 W/m 16,1 km/h (3 Bft) 95,74 %
10.11.2022 06:42 9,4 C 8,3 C 5,6 C 93 % 1021,7 hPa 0,0 l/m 0 min 0 min 0 W/m 6,4 km/h (2 Bft) 100,00 %
10.11.2022 06:44 9,4 C 8,3 C 5,6 C 93 % 1021,7 hPa 0,0 l/m 0 min 0 min 0 W/m 12,9 km/h (3 Bft) 96,55 %
10.11.2022 06:46 9,4 C 8,3 C 5,6 C 93 % 1021,8 hPa 0,0 l/m 0 min 0 min 0 W/m 16,1 km/h (3 Bft) 97,87 %
10.11.2022 06:48 9,3 C 8,3 C 5,6 C 93 % 1021,7 hPa 0,0 l/m 0 min 0 min 0 W/m 12,9 km/h (3 Bft) 97,87 %
10.11.2022 06:50 9,4 C 8,3 C 5,6 C 93 % 1021,8 hPa 0,0 l/m 0 min 0 min 0 W/m 9,7 km/h (2 Bft) 97,87 %
10.11.2022 06:52 9,4 C 8,3 C 5,6 C 93 % 1021,7 hPa 0,0 l/m 0 min 0 min 0 W/m 16,1 km/h (3 Bft) 97,87 %
10.11.2022 06:54 9,3 C 8,3 C 5,6 C 93 % 1021,8 hPa 0,0 l/m 0 min 0 min 0 W/m 12,9 km/h (3 Bft) 97,14 %
10.11.2022 06:56 9,3 C 8,3 C 5,6 C 93 % 1021,8 hPa 0,0 l/m 0 min 0 min 0 W/m 19,3 km/h (3 Bft) 98,28 %
10.11.2022 06:58 9,3 C 8,3 C 5,6 C 93 % 1021,8 hPa 0,0 l/m 0 min 0 min 0 W/m 9,7 km/h (2 Bft) 97,87 %
10.11.2022 07:00 9,3 C 8,3 C 5,6 C 93 % 1021,7 hPa 0,0 l/m 0 min 0 min 0 W/m 12,9 km/h (3 Bft) 97,87 %
10.11.2022 07:02 9,3 C 8,3 C 5,6 C 93 % 1021,8 hPa 0,0 l/m 0 min 0 min 0 W/m 16,1 km/h (3 Bft) 97,87 %
10.11.2022 07:04 9,3 C 8,3 C 5,6 C 93 % 1021,8 hPa 0,0 l/m 0 min 0 min 0 W/m 19,3 km/h (3 Bft) 97,87 %
10.11.2022 07:06 9,3 C 8,3 C 5,6 C 93 % 1021,8 hPa 0,0 l/m 0 min 0 min 0 W/m 22,5 km/h (4 Bft) 97,96 %
10.11.2022 07:08 9,3 C 8,3 C 5,6 C 93 % 1021,8 hPa 0,0 l/m 0 min 0 min 0 W/m 12,9 km/h (3 Bft) 97,14 %
10.11.2022 07:10 9,3 C 8,3 C 5,6 C 93 % 1021,8 hPa 0,0 l/m 0 min 0 min 0 W/m 12,9 km/h (3 Bft) 95,74 %
10.11.2022 07:12 9,3 C 8,3 C 5,6 C 93 % 1021,9 hPa 0,0 l/m 0 min 0 min 0 W/m 16,1 km/h (3 Bft) 97,87 %
10.11.2022 07:14 9,3 C 8,3 C 5,6 C 93 % 1021,9 hPa 0,0 l/m 0 min 0 min 0 W/m 16,1 km/h (3 Bft) 98,31 %
10.11.2022 07:16 9,3 C 8,3 C 5,6 C 93 % 1021,9 hPa 0,0 l/m 0 min 0 min 0 W/m 16,1 km/h (3 Bft) 97,87 %
10.11.2022 07:18 9,3 C 8,3 C 5,6 C 93 % 1021,9 hPa 0,0 l/m 0 min 0 min 0 W/m 22,5 km/h (4 Bft) 97,83 %
10.11.2022 07:20 9,3 C 8,3 C 5,6 C 93 % 1022,0 hPa 0,0 l/m 0 min 0 min 0 W/m 16,1 km/h (3 Bft) 97,87 %
10.11.2022 07:22 9,3 C 8,3 C 5,6 C 93 % 1022,0 hPa 0,0 l/m 0 min 0 min 0 W/m 12,9 km/h (3 Bft) 95,74 %
10.11.2022 07:24 9,3 C 8,3 C 5,6 C 93 % 1022,0 hPa 0,0 l/m 0 min 0 min 0 W/m 19,3 km/h (3 Bft) 97,14 %
10.11.2022 07:26 9,3 C 8,3 C 5,6 C 93 % 1022,1 hPa 0,0 l/m 0 min 0 min 0 W/m 12,9 km/h (3 Bft) 97,87 %
10.11.2022 07:28 9,3 C 8,3 C 5,6 C 93 % 1022,1 hPa 0,0 l/m 0 min 0 min 0 W/m 12,9 km/h (3 Bft) 96,61 %
10.11.2022 07:30 9,3 C 8,3 C 5,6 C 93 % 1022,2 hPa 0,0 l/m 0 min 0 min 0 W/m 12,9 km/h (3 Bft) 97,83 %
10.11.2022 07:32 9,3 C 8,3 C 5,6 C 93 % 1022,1 hPa 0,0 l/m 0 min 0 min 0 W/m 12,9 km/h (3 Bft) 97,87 %
10.11.2022 07:34 9,3 C 8,3 C 5,6 C 93 % 1022,2 hPa 0,0 l/m 0 min 0 min 0 W/m 19,3 km/h (3 Bft) 100,00 %
10.11.2022 07:36 9,3 C 8,3 C 5,6 C 93 % 1022,2 hPa 0,0 l/m 0 min 0 min 0 W/m 16,1 km/h (3 Bft) 100,00 %
10.11.2022 07:38 9,3 C 8,3 C 5,6 C 93 % 1022,3 hPa 0,0 l/m 0 min 0 min 0 W/m 19,3 km/h (3 Bft) 98,31 %
10.11.2022 07:40 9,3 C 8,3 C 5,6 C 93 % 1022,3 hPa 0,0 l/m 0 min 0 min 0 W/m 12,9 km/h (3 Bft) 97,83 %
10.11.2022 07:42 9,3 C 8,3 C 5,6 C 93 % 1022,3 hPa 0,0 l/m 0 min 0 min 0 W/m 12,9 km/h (3 Bft) 97,22 %
10.11.2022 07:44 9,3 C 8,3 C 5,6 C 93 % 1022,3 hPa 0,0 l/m 0 min 0 min 0 W/m 12,9 km/h (3 Bft) 98,28 %
10.11.2022 07:46 9,3 C 8,3 C 5,6 C 93 % 1022,4 hPa 0,0 l/m 0 min 0 min 0 W/m 12,9 km/h (3 Bft) 100,00 %
10.11.2022 07:48 9,3 C 8,3 C 5,6 C 93 % 1022,5 hPa 0,0 l/m 0 min 0 min 2 W/m 16,1 km/h (3 Bft) 100,00 %
10.11.2022 07:50 9,3 C 8,3 C 5,6 C 93 % 1022,5 hPa 0,0 l/m 0 min 0 min 5 W/m 16,1 km/h (3 Bft) 97,87 %
10.11.2022 07:52 9,3 C 8,3 C 5,6 C 93 % 1022,4 hPa 0,0 l/m 0 min 0 min 5 W/m 19,3 km/h (3 Bft) 100,00 %
10.11.2022 07:54 9,3 C 8,3 C 5,6 C 93 % 1022,5 hPa 0,0 l/m 0 min 0 min 7 W/m 19,3 km/h (3 Bft) 100,00 %
10.11.2022 07:56 9,3 C 8,3 C 5,6 C 93 % 1022,5 hPa 0,0 l/m 0 min 0 min 7 W/m 12,9 km/h (3 Bft) 97,22 %
10.11.2022 07:58 9,3 C 8,3 C 5,6 C 93 % 1022,6 hPa 0,0 l/m 0 min 0 min 7 W/m 16,1 km/h (3 Bft) 95,65 %
10.11.2022 08:00 9,3 C 8,3 C 5,6 C 93 % 1022,6 hPa 0,0 l/m 0 min 0 min 9 W/m 12,9 km/h (3 Bft) 100,00 %
10.11.2022 08:02 9,3 C 8,3 C 5,6 C 93 % 1022,7 hPa 0,0 l/m 0 min 0 min 9 W/m 12,9 km/h (3 Bft) 97,87 %
10.11.2022 08:04 9,3 C 8,3 C 5,6 C 93 % 1022,7 hPa 0,0 l/m 0 min 0 min 11 W/m 12,9 km/h (3 Bft) 100,00 %
10.11.2022 08:06 9,3 C 8,3 C 5,6 C 93 % 1022,7 hPa 0,0 l/m 0 min 0 min 11 W/m 16,1 km/h (3 Bft) 100,00 %
10.11.2022 08:08 9,3 C 8,3 C 5,6 C 93 % 1022,9 hPa 0,0 l/m 0 min 0 min 12 W/m 12,9 km/h (3 Bft) 100,00 %
10.11.2022 08:10 9,3 C 8,3 C 5,6 C 93 % 1022,9 hPa 0,0 l/m 0 min 0 min 12 W/m 16,1 km/h (3 Bft) 100,00 %
10.11.2022 08:12 9,3 C 8,3 C 5,6 C 93 % 1022,9 hPa 0,0 l/m 0 min 0 min 14 W/m 19,3 km/h (3 Bft) 100,00 %
10.11.2022 08:14 9,3 C 8,3 C 5,6 C 93 % 1023,0 hPa 0,0 l/m 0 min 0 min 15 W/m 12,9 km/h (3 Bft) 100,00 %
10.11.2022 08:16 9,3 C 8,3 C 5,6 C 93 % 1023,0 hPa 0,0 l/m 0 min 0 min 16 W/m 19,3 km/h (3 Bft) 97,87 %
10.11.2022 08:18 9,3 C 8,9 C 5,6 C 93 % 1023,0 hPa 0,0 l/m 0 min 0 min 17 W/m 12,9 km/h (3 Bft) 100,00 %
10.11.2022 08:20 9,3 C 8,9 C 5,6 C 93 % 1023,1 hPa 0,0 l/m 0 min 0 min 18 W/m 19,3 km/h (3 Bft) 98,18 %
10.11.2022 08:22 9,3 C 8,9 C 5,6 C 93 % 1023,1 hPa 0,0 l/m 0 min 0 min 18 W/m 16,1 km/h (3 Bft) 98,00 %
10.11.2022 08:24 9,3 C 8,9 C 5,6 C 93 % 1023,2 hPa 0,0 l/m 0 min 0 min 19 W/m 12,9 km/h (3 Bft) 97,37 %
10.11.2022 08:26 9,3 C 8,9 C 5,6 C 93 % 1023,2 hPa 0,0 l/m 0 min 0 min 19 W/m 12,9 km/h (3 Bft) 95,74 %
10.11.2022 08:28 9,3 C 8,9 C 5,6 C 93 % 1023,2 hPa 0,0 l/m 0 min 0 min 19 W/m 16,1 km/h (3 Bft) 97,87 %
10.11.2022 08:30 9,3 C 8,9 C 5,6 C 93 % 1023,2 hPa 0,0 l/m 0 min 0 min 20 W/m 19,3 km/h (3 Bft) 97,87 %
10.11.2022 08:32 9,3 C 8,9 C 5,6 C 93 % 1023,2 hPa 0,0 l/m 0 min 0 min 21 W/m 16,1 km/h (3 Bft) 97,83 %
10.11.2022 08:34 9,4 C 8,9 C 5,6 C 93 % 1023,2 hPa 0,0 l/m 0 min 0 min 22 W/m 16,1 km/h (3 Bft) 97,87 %
10.11.2022 08:36 9,4 C 8,9 C 5,6 C 93 % 1023,2 hPa 0,0 l/m 0 min 0 min 23 W/m 19,3 km/h (3 Bft) 97,87 %
10.11.2022 08:38 9,4 C 8,9 C 5,6 C 93 % 1023,3 hPa 0,0 l/m 0 min 0 min 24 W/m 16,1 km/h (3 Bft) 95,74 %
10.11.2022 08:40 9,4 C 8,9 C 5,6 C 93 % 1023,3 hPa 0,0 l/m 0 min 0 min 25 W/m 16,1 km/h (3 Bft) 93,62 %
10.11.2022 08:42 9,4 C 8,9 C 5,6 C 93 % 1023,4 hPa 0,0 l/m 0 min 0 min 26 W/m 12,9 km/h (3 Bft) 97,83 %
10.11.2022 08:44 9,4 C 8,9 C 5,6 C 93 % 1023,4 hPa 0,0 l/m 0 min 0 min 26 W/m 16,1 km/h (3 Bft) 95,74 %
10.11.2022 08:46 9,4 C 8,9 C 5,6 C 93 % 1023,4 hPa 0,0 l/m 0 min 0 min 28 W/m 19,3 km/h (3 Bft) 93,62 %
10.11.2022 08:48 9,5 C 8,9 C 6,1 C 93 % 1023,5 hPa 0,0 l/m 0 min 0 min 29 W/m 22,5 km/h (4 Bft) 93,62 %
10.11.2022 08:50 9,5 C 8,9 C 6,1 C 93 % 1023,5 hPa 0,0 l/m 0 min 0 min 31 W/m 25,7 km/h (4 Bft) 97,87 %
10.11.2022 08:52 9,5 C 8,9 C 6,1 C 93 % 1023,6 hPa 0,0 l/m 0 min 0 min 32 W/m 16,1 km/h (3 Bft) 91,49 %
10.11.2022 08:54 9,6 C 8,9 C 6,1 C 93 % 1023,6 hPa 0,0 l/m 0 min 0 min 31 W/m 12,9 km/h (3 Bft) 93,62 %
10.11.2022 08:56 9,6 C 9,4 C 6,1 C 93 % 1023,6 hPa 0,0 l/m 0 min 0 min 32 W/m 22,5 km/h (4 Bft) 91,30 %
10.11.2022 08:58 9,6 C 9,4 C 6,1 C 93 % 1023,6 hPa 0,0 l/m 0 min 0 min 32 W/m 12,9 km/h (3 Bft) 91,49 %
10.11.2022 09:00 9,6 C 9,4 C 6,1 C 93 % 1023,7 hPa 0,0 l/m 0 min 0 min 33 W/m 19,3 km/h (3 Bft) 91,49 %
10.11.2022 09:02 9,7 C 9,4 C 6,1 C 93 % 1023,7 hPa 0,0 l/m 0 min 0 min 33 W/m 12,9 km/h (3 Bft) 93,62 %
10.11.2022 09:04 9,7 C 9,4 C 6,1 C 93 % 1023,7 hPa 0,0 l/m 0 min 0 min 33 W/m 16,1 km/h (3 Bft) 91,49 %
10.11.2022 09:06 9,7 C 9,4 C 6,1 C 93 % 1023,8 hPa 0,0 l/m 0 min 0 min 37 W/m 16,1 km/h (3 Bft) 93,48 %
10.11.2022 09:08 9,8 C 9,4 C 6,1 C 93 % 1023,8 hPa 0,0 l/m 0 min 0 min 56 W/m 16,1 km/h (3 Bft) 93,62 %
10.11.2022 09:10 9,8 C 9,4 C 6,1 C 93 % 1023,8 hPa 0,0 l/m 0 min 0 min 46 W/m 9,7 km/h (2 Bft) 93,62 %
10.11.2022 09:12 9,8 C 9,4 C 6,1 C 93 % 1023,9 hPa 0,0 l/m 0 min 0 min 38 W/m 16,1 km/h (3 Bft) 95,74 %
10.11.2022 09:14 9,9 C 9,4 C 6,1 C 93 % 1023,9 hPa 0,0 l/m 0 min 0 min 36 W/m 19,3 km/h (3 Bft) 95,74 %
10.11.2022 09:16 9,9 C 9,4 C 6,1 C 93 % 1024,0 hPa 0,0 l/m 0 min 0 min 38 W/m 16,1 km/h (3 Bft) 93,62 %
10.11.2022 09:18 9,9 C 9,4 C 6,7 C 93 % 1024,0 hPa 0,0 l/m 0 min 0 min 43 W/m 19,3 km/h (3 Bft) 93,48 %
10.11.2022 09:20 10,0 C 10,0 C 6,7 C 93 % 1024,0 hPa 0,0 l/m 0 min 0 min 51 W/m 16,1 km/h (3 Bft) 95,74 %
10.11.2022 09:22 10,1 C 10,0 C 6,7 C 93 % 1024,0 hPa 0,0 l/m 0 min 0 min 42 W/m 19,3 km/h (3 Bft) 95,74 %
10.11.2022 09:24 10,1 C 10,0 C 6,7 C 93 % 1024,0 hPa 0,0 l/m 0 min 0 min 42 W/m 19,3 km/h (3 Bft) 95,74 %
10.11.2022 09:26 10,2 C 10,0 C 6,7 C 92 % 1024,1 hPa 0,0 l/m 0 min 0 min 44 W/m 16,1 km/h (3 Bft) 97,87 %
10.11.2022 09:28 10,2 C 10,0 C 6,7 C 92 % 1024,0 hPa 0,0 l/m 0 min 0 min 64 W/m 12,9 km/h (3 Bft) 93,62 %
10.11.2022 09:30 10,2 C 10,0 C 6,7 C 92 % 1024,0 hPa 0,0 l/m 2 min 0 min 112 W/m 22,5 km/h (4 Bft) 97,87 %
10.11.2022 09:32 10,3 C 10,0 C 6,7 C 92 % 1024,0 hPa 0,0 l/m 0 min 0 min 88 W/m 19,3 km/h (3 Bft) 96,15 %
10.11.2022 09:34 10,3 C 10,0 C 6,7 C 92 % 1024,1 hPa 0,0 l/m 0 min 0 min 85 W/m 22,5 km/h (4 Bft) 97,87 %
10.11.2022 09:36 10,4 C 10,0 C 6,7 C 92 % 1024,1 hPa 0,0 l/m 0 min 0 min 91 W/m 22,5 km/h (4 Bft) 97,87 %
10.11.2022 09:38 10,5 C 10,6 C 6,7 C 92 % 1024,0 hPa 0,0 l/m 2 min 0 min 149 W/m 12,9 km/h (3 Bft) 100,00 %
10.11.2022 09:40 10,6 C 10,6 C 6,7 C 91 % 1024,1 hPa 0,0 l/m 2 min 0 min 188 W/m 16,1 km/h (3 Bft) 100,00 %
10.11.2022 09:42 10,6 C 10,6 C 6,7 C 91 % 1024,1 hPa 0,0 l/m 2 min 0 min 190 W/m 19,3 km/h (3 Bft) 100,00 %
10.11.2022 09:44 10,7 C 10,6 C 7,2 C 91 % 1024,1 hPa 0,0 l/m 2 min 0 min 193 W/m 19,3 km/h (3 Bft) 100,00 %
10.11.2022 09:46 10,7 C 10,6 C 7,2 C 91 % 1024,2 hPa 0,0 l/m 2 min 0 min 201 W/m 12,9 km/h (3 Bft) 97,87 %
10.11.2022 09:48 10,8 C 10,6 C 7,2 C 91 % 1024,2 hPa 0,0 l/m 2 min 0 min 208 W/m 29,0 km/h (5 Bft) 100,00 %
10.11.2022 09:50 10,8 C 10,6 C 7,2 C 91 % 1024,2 hPa 0,0 l/m 2 min 0 min 171 W/m 22,5 km/h (4 Bft) 100,00 %
10.11.2022 09:52 10,9 C 11,1 C 7,2 C 91 % 1024,3 hPa 0,0 l/m 2 min 0 min 204 W/m 19,3 km/h (3 Bft) 100,00 %
10.11.2022 09:54 11,0 C 12,2 C 7,2 C 91 % 1024,3 hPa 0,0 l/m 2 min 0 min 196 W/m 12,9 km/h (3 Bft) 100,00 %
10.11.2022 09:56 11,1 C 12,8 C 7,2 C 90 % 1024,4 hPa 0,0 l/m 2 min 0 min 133 W/m 22,5 km/h (4 Bft) 100,00 %
10.11.2022 09:58 11,1 C 13,9 C 7,2 C 90 % 1024,3 hPa 0,0 l/m 2 min 0 min 182 W/m 19,3 km/h (3 Bft) 100,00 %
10.11.2022 10:00 11,2 C 14,4 C 7,2 C 90 % 1024,3 hPa 0,0 l/m 2 min 0 min 233 W/m 22,5 km/h (4 Bft) 100,00 %
10.11.2022 10:02 11,3 C 15,6 C 7,2 C 90 % 1024,3 hPa 0,0 l/m 2 min 0 min 238 W/m 19,3 km/h (3 Bft) 100,00 %
10.11.2022 10:04 11,4 C 16,1 C 7,2 C 89 % 1024,3 hPa 0,0 l/m 2 min 0 min 245 W/m 22,5 km/h (4 Bft) 100,00 %
10.11.2022 10:06 11,5 C 16,1 C 7,2 C 89 % 1024,3 hPa 0,0 l/m 2 min 0 min 246 W/m 22,5 km/h (4 Bft) 100,00 %
10.11.2022 10:08 11,6 C 16,7 C 7,8 C 89 % 1024,3 hPa 0,0 l/m 2 min 0 min 256 W/m 25,7 km/h (4 Bft) 97,87 %
10.11.2022 10:10 11,7 C 16,7 C 7,8 C 89 % 1024,3 hPa 0,0 l/m 2 min 0 min 259 W/m 16,1 km/h (3 Bft) 97,87 %
10.11.2022 10:12 11,7 C 17,2 C 7,8 C 89 % 1024,4 hPa 0,0 l/m 2 min 0 min 262 W/m 19,3 km/h (3 Bft) 100,00 %
10.11.2022 10:14 11,8 C 17,8 C 7,8 C 89 % 1024,4 hPa 0,0 l/m 2 min 0 min 265 W/m 16,1 km/h (3 Bft) 100,00 %
10.11.2022 10:16 11,9 C 17,2 C 7,8 C 88 % 1024,4 hPa 0,0 l/m 2 min 0 min 269 W/m 22,5 km/h (4 Bft) 100,00 %
10.11.2022 10:18 12,0 C 17,8 C 7,8 C 88 % 1024,4 hPa 0,0 l/m 2 min 0 min 271 W/m 16,1 km/h (3 Bft) 100,00 %
10.11.2022 10:20 12,1 C 18,3 C 7,8 C 88 % 1024,4 hPa 0,0 l/m 2 min 0 min 275 W/m 19,3 km/h (3 Bft) 100,00 %
10.11.2022 10:22 12,2 C 18,3 C 7,8 C 88 % 1024,5 hPa 0,0 l/m 2 min 0 min 278 W/m 16,1 km/h (3 Bft) 100,00 %
10.11.2022 10:24 12,3 C 18,9 C 7,8 C 87 % 1024,5 hPa 0,0 l/m 2 min 0 min 282 W/m 19,3 km/h (3 Bft) 97,87 %
10.11.2022 10:26 12,4 C 18,9 C 7,8 C 87 % 1024,5 hPa 0,0 l/m 2 min 0 min 284 W/m 16,1 km/h (3 Bft) 100,00 %
10.11.2022 10:28 12,4 C 18,3 C 7,8 C 87 % 1024,4 hPa 0,0 l/m 2 min 0 min 289 W/m 22,5 km/h (4 Bft) 100,00 %
10.11.2022 10:30 12,5 C 17,8 C 7,8 C 86 % 1024,4 hPa 0,0 l/m 2 min 0 min 292 W/m 22,5 km/h (4 Bft) 100,00 %
10.11.2022 10:32 12,6 C 18,3 C 7,8 C 86 % 1024,4 hPa 0,0 l/m 2 min 0 min 295 W/m 29,0 km/h (5 Bft) 100,00 %
10.11.2022 10:34 12,6 C 17,2 C 7,8 C 86 % 1024,5 hPa 0,0 l/m 2 min 0 min 280 W/m 19,3 km/h (3 Bft) 100,00 %
10.11.2022 10:36 12,6 C 16,7 C 8,3 C 86 % 1024,6 hPa 0,0 l/m 2 min 0 min 265 W/m 22,5 km/h (4 Bft) 93,62 %
10.11.2022 10:38 12,7 C 16,1 C 8,3 C 86 % 1024,6 hPa 0,0 l/m 2 min 0 min 166 W/m 19,3 km/h (3 Bft) 100,00 %
10.11.2022 10:40 12,7 C 15,6 C 8,3 C 85 % 1024,6 hPa 0,0 l/m 0 min 0 min 121 W/m 29,0 km/h (5 Bft) 100,00 %
10.11.2022 10:42 12,7 C 15,6 C 8,3 C 85 % 1024,7 hPa 0,0 l/m 2 min 0 min 196 W/m 25,7 km/h (4 Bft) 97,83 %
10.11.2022 10:44 12,7 C 15,0 C 8,3 C 85 % 1024,6 hPa 0,0 l/m 2 min 0 min 286 W/m 22,5 km/h (4 Bft) 97,87 %
10.11.2022 10:46 12,8 C 14,4 C 8,3 C 85 % 1024,6 hPa 0,0 l/m 2 min 0 min 258 W/m 19,3 km/h (3 Bft) 100,00 %
10.11.2022 10:48 12,8 C 14,4 C 8,3 C 85 % 1024,7 hPa 0,0 l/m 2 min 0 min 163 W/m 16,1 km/h (3 Bft) 97,87 %
10.11.2022 10:50 12,9 C 13,9 C 8,3 C 85 % 1024,8 hPa 0,0 l/m 2 min 0 min 200 W/m 19,3 km/h (3 Bft) 97,87 %
10.11.2022 10:52 12,9 C 13,3 C 8,3 C 85 % 1024,8 hPa 0,0 l/m 0 min 0 min 109 W/m 19,3 km/h (3 Bft) 97,83 %
10.11.2022 10:54 12,9 C 13,3 C 8,3 C 85 % 1024,8 hPa 0,0 l/m 0 min 0 min 63 W/m 16,1 km/h (3 Bft) 100,00 %
10.11.2022 10:56 13,0 C 12,8 C 8,3 C 85 % 1024,9 hPa 0,0 l/m 0 min 0 min 68 W/m 29,0 km/h (5 Bft) 100,00 %
10.11.2022 10:58 13,0 C 12,8 C 8,3 C 85 % 1024,8 hPa 0,0 l/m 0 min 0 min 58 W/m 22,5 km/h (4 Bft) 97,87 %
10.11.2022 11:00 13,0 C 12,8 C 8,3 C 85 % 1024,9 hPa 0,0 l/m 0 min 0 min 52 W/m 25,7 km/h (4 Bft) 100,00 %
10.11.2022 11:02 13,1 C 12,8 C 8,9 C 85 % 1025,0 hPa 0,0 l/m 0 min 0 min 52 W/m 25,7 km/h (4 Bft) 100,00 %
10.11.2022 11:04 13,1 C 12,8 C 8,9 C 84 % 1024,9 hPa 0,0 l/m 0 min 0 min 56 W/m 25,7 km/h (4 Bft) 95,65 %
10.11.2022 11:06 13,1 C 12,8 C 8,9 C 84 % 1025,0 hPa 0,0 l/m 0 min 0 min 47 W/m 19,3 km/h (3 Bft) 97,87 %
10.11.2022 11:08 13,1 C 12,8 C 8,9 C 84 % 1025,0 hPa 0,0 l/m 0 min 0 min 44 W/m 16,1 km/h (3 Bft) 95,74 %
10.11.2022 11:10 13,1 C 12,8 C 8,9 C 84 % 1025,0 hPa 0,0 l/m 0 min 0 min 47 W/m 19,3 km/h (3 Bft) 95,74 %
10.11.2022 11:12 13,1 C 12,8 C 8,9 C 85 % 1024,9 hPa 0,0 l/m 0 min 0 min 47 W/m 19,3 km/h (3 Bft) 91,49 %
10.11.2022 11:14 13,1 C 12,8 C 8,9 C 85 % 1025,0 hPa 0,0 l/m 0 min 0 min 47 W/m 19,3 km/h (3 Bft) 51,22 %
10.11.2022 11:16 13,2 C 12,8 C 8,9 C 85 % 1025,0 hPa 0,0 l/m 0 min 0 min 47 W/m 16,1 km/h (3 Bft) 90,24 %
10.11.2022 11:18 13,2 C 12,8 C 8,9 C 85 % 1025,0 hPa 0,0 l/m 0 min 0 min 48 W/m 16,1 km/h (3 Bft) 95,74 %
10.11.2022 11:20 13,2 C 12,8 C 8,9 C 85 % 1025,0 hPa 0,0 l/m 0 min 0 min 48 W/m 25,7 km/h (4 Bft) 95,74 %
10.11.2022 11:22 13,2 C 12,8 C 8,9 C 84 % 1025,1 hPa 0,0 l/m 0 min 0 min 47 W/m 19,3 km/h (3 Bft) 93,62 %
10.11.2022 11:24 13,3 C 12,8 C 8,9 C 84 % 1025,1 hPa 0,0 l/m 0 min 0 min 47 W/m 29,0 km/h (5 Bft) 95,74 %
10.11.2022 11:26 13,3 C 12,8 C 8,9 C 84 % 1025,1 hPa 0,0 l/m 0 min 0 min 48 W/m 16,1 km/h (3 Bft) 95,74 %
10.11.2022 11:28 13,3 C 12,8 C 8,9 C 84 % 1025,1 hPa 0,0 l/m 0 min 0 min 46 W/m 16,1 km/h (3 Bft) 93,48 %
10.11.2022 11:30 13,3 C 12,8 C 8,9 C 84 % 1025,0 hPa 0,0 l/m 0 min 0 min 60 W/m 22,5 km/h (4 Bft) 93,62 %
10.11.2022 11:32 13,3 C 12,8 C 8,9 C 84 % 1025,1 hPa 0,0 l/m 0 min 0 min 58 W/m 19,3 km/h (3 Bft) 93,62 %
10.11.2022 11:34 13,4 C 12,8 C 8,9 C 84 % 1025,0 hPa 0,0 l/m 0 min 0 min 46 W/m 12,9 km/h (3 Bft) 95,74 %
10.11.2022 11:36 13,4 C 13,3 C 8,9 C 84 % 1025,0 hPa 0,0 l/m 0 min 0 min 49 W/m 9,7 km/h (2 Bft) 93,62 %
10.11.2022 11:38 13,4 C 13,3 C 8,9 C 84 % 1024,9 hPa 0,0 l/m 0 min 0 min 46 W/m 19,3 km/h (3 Bft) 93,62 %
10.11.2022 11:40 13,5 C 13,3 C 8,9 C 84 % 1025,0 hPa 0,0 l/m 0 min 0 min 45 W/m 19,3 km/h (3 Bft) 91,30 %
10.11.2022 11:42 13,6 C 13,3 C 9,4 C 84 % 1025,0 hPa 0,0 l/m 0 min 0 min 44 W/m 29,0 km/h (5 Bft) 97,87 %
10.11.2022 11:44 13,6 C 13,3 C 9,4 C 83 % 1024,9 hPa 0,0 l/m 0 min 0 min 44 W/m 16,1 km/h (3 Bft) 93,62 %
10.11.2022 11:46 13,6 C 13,3 C 9,4 C 83 % 1024,9 hPa 0,0 l/m 0 min 0 min 44 W/m 19,3 km/h (3 Bft) 95,74 %
10.11.2022 11:48 13,6 C 13,3 C 9,4 C 83 % 1024,9 hPa 0,0 l/m 0 min 0 min 44 W/m 25,7 km/h (4 Bft) 95,74 %
10.11.2022 11:50 13,7 C 13,3 C 9,4 C 83 % 1024,9 hPa 0,0 l/m 0 min 0 min 44 W/m 19,3 km/h (3 Bft) 97,87 %
10.11.2022 11:52 13,7 C 13,3 C 9,4 C 83 % 1024,9 hPa 0,0 l/m 0 min 0 min 45 W/m 19,3 km/h (3 Bft) 97,83 %
10.11.2022 11:54 13,7 C 13,3 C 9,4 C 83 % 1025,0 hPa 0,0 l/m 0 min 0 min 45 W/m 25,7 km/h (4 Bft) 97,87 %
10.11.2022 11:56 13,8 C 13,3 C 9,4 C 83 % 1025,0 hPa 0,0 l/m 0 min 0 min 43 W/m 22,5 km/h (4 Bft) 97,56 %
10.11.2022 11:58 13,8 C 13,3 C 9,4 C 82 % 1025,0 hPa 0,0 l/m 0 min 0 min 38 W/m 29,0 km/h (5 Bft) 95,74 %
10.11.2022 12:00 13,8 C 13,3 C 9,4 C 82 % 1025,0 hPa 0,0 l/m 0 min 0 min 40 W/m 32,2 km/h (5 Bft) 97,87 %
10.11.2022 12:02 13,8 C 13,3 C 9,4 C 82 % 1024,9 hPa 0,0 l/m 0 min 0 min 44 W/m 29,0 km/h (5 Bft) 100,00 %
10.11.2022 12:04 13,8 C 13,3 C 9,4 C 81 % 1025,0 hPa 0,0 l/m 0 min 0 min 44 W/m 22,5 km/h (4 Bft) 95,24 %
10.11.2022 12:08 13,8 C 13,3 C 9,4 C 81 % 1025,1 hPa 0,0 l/m 0 min 0 min 44 W/m 22,5 km/h (4 Bft) 98,91 %
10.11.2022 12:10 13,9 C 13,3 C 9,4 C 81 % 1025,1 hPa 0,0 l/m 0 min 0 min 44 W/m 22,5 km/h (4 Bft) 97,87 %
10.11.2022 12:12 13,9 C 13,3 C 9,4 C 81 % 1025,2 hPa 0,0 l/m 0 min 0 min 48 W/m 16,1 km/h (3 Bft) 97,87 %
10.11.2022 12:14 13,9 C 13,3 C 9,4 C 81 % 1025,3 hPa 0,0 l/m 0 min 0 min 46 W/m 32,2 km/h (5 Bft) 97,87 %
10.11.2022 12:16 13,9 C 13,3 C 9,4 C 81 % 1025,3 hPa 0,0 l/m 0 min 0 min 59 W/m 19,3 km/h (3 Bft) 100,00 %
10.11.2022 12:18 14,0 C 13,3 C 9,4 C 81 % 1025,3 hPa 0,0 l/m 0 min 0 min 49 W/m 22,5 km/h (4 Bft) 100,00 %
10.11.2022 12:20 14,1 C 13,9 C 9,4 C 81 % 1025,4 hPa 0,0 l/m 0 min 0 min 47 W/m 32,2 km/h (5 Bft) 97,87 %
10.11.2022 12:22 14,1 C 13,9 C 9,4 C 80 % 1025,4 hPa 0,0 l/m 0 min 0 min 47 W/m 32,2 km/h (5 Bft) 95,74 %
10.11.2022 12:24 14,1 C 13,9 C 9,4 C 80 % 1025,4 hPa 0,0 l/m 0 min 0 min 47 W/m 22,5 km/h (4 Bft) 97,87 %
10.11.2022 12:26 14,2 C 13,9 C 9,4 C 80 % 1025,4 hPa 0,0 l/m 0 min 0 min 49 W/m 29,0 km/h (5 Bft) 97,87 %
10.11.2022 12:28 14,2 C 13,9 C 9,4 C 80 % 1025,4 hPa 0,0 l/m 0 min 0 min 51 W/m 25,7 km/h (4 Bft) 93,62 %
10.11.2022 12:30 14,3 C 13,9 C 9,4 C 79 % 1025,4 hPa 0,0 l/m 0 min 0 min 51 W/m 19,3 km/h (3 Bft) 97,83 %
10.11.2022 12:32 14,3 C 13,9 C 9,4 C 79 % 1025,4 hPa 0,0 l/m 0 min 0 min 51 W/m 22,5 km/h (4 Bft) 97,87 %
10.11.2022 12:34 14,3 C 13,9 C 10,0 C 79 % 1025,4 hPa 0,0 l/m 0 min 0 min 50 W/m 19,3 km/h (3 Bft) 95,74 %
10.11.2022 12:36 14,3 C 13,9 C 10,0 C 79 % 1025,4 hPa 0,0 l/m 0 min 0 min 48 W/m 16,1 km/h (3 Bft) 95,74 %
10.11.2022 12:38 14,3 C 13,9 C 10,0 C 79 % 1025,4 hPa 0,0 l/m 0 min 0 min 47 W/m 19,3 km/h (3 Bft) 95,74 %
10.11.2022 12:40 14,3 C 14,4 C 10,0 C 79 % 1025,5 hPa 0,0 l/m 0 min 0 min 66 W/m 19,3 km/h (3 Bft) 95,74 %
10.11.2022 12:42 14,3 C 14,4 C 10,0 C 79 % 1025,5 hPa 0,0 l/m 0 min 0 min 60 W/m 16,1 km/h (3 Bft) 97,83 %
10.11.2022 12:44 14,3 C 14,4 C 10,0 C 79 % 1025,5 hPa 0,0 l/m 0 min 0 min 75 W/m 22,5 km/h (4 Bft) 95,74 %
10.11.2022 12:46 14,3 C 14,4 C 10,0 C 79 % 1025,5 hPa 0,0 l/m 0 min 0 min 133 W/m 12,9 km/h (3 Bft) 97,87 %
10.11.2022 12:48 14,3 C 14,4 C 10,0 C 79 % 1025,6 hPa 0,0 l/m 0 min 0 min 68 W/m 22,5 km/h (4 Bft) 97,87 %
10.11.2022 12:50 14,3 C 14,4 C 10,0 C 78 % 1025,7 hPa 0,0 l/m 0 min 0 min 144 W/m 25,7 km/h (4 Bft) 97,87 %
10.11.2022 12:52 14,4 C 15,0 C 10,0 C 78 % 1025,7 hPa 0,0 l/m 2 min 0 min 205 W/m 19,3 km/h (3 Bft) 97,87 %
10.11.2022 12:54 14,4 C 15,0 C 10,0 C 78 % 1025,6 hPa 0,0 l/m 0 min 0 min 167 W/m 25,7 km/h (4 Bft) 97,83 %
10.11.2022 12:56 14,6 C 15,6 C 10,0 C 78 % 1025,6 hPa 0,0 l/m 2 min 0 min 180 W/m 16,1 km/h (3 Bft) 97,87 %
10.11.2022 12:58 14,6 C 16,1 C 10,0 C 77 % 1025,6 hPa 0,0 l/m 2 min 0 min 279 W/m 22,5 km/h (4 Bft) 97,87 %
10.11.2022 13:00 14,6 C 16,7 C 10,0 C 77 % 1025,6 hPa 0,0 l/m 2 min 0 min 354 W/m 29,0 km/h (5 Bft) 95,74 %
10.11.2022 13:02 14,7 C 16,7 C 10,0 C 77 % 1025,7 hPa 0,0 l/m 2 min 0 min 349 W/m 19,3 km/h (3 Bft) 97,87 %
10.11.2022 13:04 14,7 C 16,7 C 10,0 C 77 % 1025,7 hPa 0,0 l/m 2 min 0 min 350 W/m 22,5 km/h (4 Bft) 100,00 %
10.11.2022 13:06 14,8 C 16,1 C 10,0 C 77 % 1025,7 hPa 0,0 l/m 2 min 0 min 357 W/m 29,0 km/h (5 Bft) 96,55 %
10.11.2022 13:08 14,8 C 15,6 C 10,0 C 76 % 1025,7 hPa 0,0 l/m 2 min 0 min 356 W/m 32,2 km/h (5 Bft) 100,00 %
10.11.2022 13:10 14,8 C 15,6 C 10,0 C 76 % 1025,7 hPa 0,0 l/m 2 min 0 min 359 W/m 19,3 km/h (3 Bft) 97,87 %
10.11.2022 13:12 14,9 C 15,0 C 10,0 C 76 % 1025,6 hPa 0,0 l/m 2 min 0 min 357 W/m 32,2 km/h (5 Bft) 97,87 %
10.11.2022 13:14 14,9 C 15,0 C 10,0 C 75 % 1025,7 hPa 0,0 l/m 2 min 0 min 363 W/m 32,2 km/h (5 Bft) 95,74 %
10.11.2022 13:16 14,9 C 15,0 C 10,0 C 75 % 1025,7 hPa 0,0 l/m 2 min 0 min 362 W/m 16,1 km/h (3 Bft) 95,74 %
10.11.2022 13:18 15,0 C 15,0 C 10,0 C 76 % 1025,7 hPa 0,0 l/m 2 min 0 min 362 W/m 16,1 km/h (3 Bft) 97,83 %
10.11.2022 13:20 15,1 C 15,0 C 10,0 C 76 % 1025,7 hPa 0,0 l/m 2 min 0 min 359 W/m 25,7 km/h (4 Bft) 97,87 %
10.11.2022 13:22 15,1 C 15,0 C 10,0 C 76 % 1025,7 hPa 0,0 l/m 2 min 0 min 359 W/m 29,0 km/h (5 Bft) 97,87 %
10.11.2022 13:24 15,2 C 15,0 C 10,0 C 75 % 1025,8 hPa 0,0 l/m 2 min 0 min 352 W/m 16,1 km/h (3 Bft) 97,87 %
10.11.2022 13:26 15,2 C 15,0 C 10,0 C 75 % 1025,8 hPa 0,0 l/m 2 min 0 min 344 W/m 19,3 km/h (3 Bft) 97,87 %
10.11.2022 13:28 15,2 C 15,0 C 10,0 C 75 % 1025,8 hPa 0,0 l/m 2 min 0 min 325 W/m 19,3 km/h (3 Bft) 97,87 %
10.11.2022 13:30 15,2 C 15,0 C 10,0 C 74 % 1025,8 hPa 0,0 l/m 2 min 0 min 313 W/m 19,3 km/h (3 Bft) 97,83 %
10.11.2022 13:32 15,2 C 15,0 C 10,0 C 75 % 1025,8 hPa 0,0 l/m 2 min 0 min 305 W/m 19,3 km/h (3 Bft) 95,74 %
10.11.2022 13:34 15,3 C 15,0 C 10,0 C 75 % 1025,8 hPa 0,0 l/m 2 min 0 min 316 W/m 22,5 km/h (4 Bft) 97,87 %
10.11.2022 13:36 15,3 C 15,6 C 10,0 C 75 % 1025,8 hPa 0,0 l/m 2 min 0 min 314 W/m 22,5 km/h (4 Bft) 97,87 %
10.11.2022 13:38 15,3 C 15,6 C 10,0 C 74 % 1025,8 hPa 0,0 l/m 2 min 0 min 318 W/m 25,7 km/h (4 Bft) 97,87 %
10.11.2022 13:40 15,3 C 15,0 C 10,0 C 74 % 1025,8 hPa 0,0 l/m 2 min 0 min 317 W/m 25,7 km/h (4 Bft) 97,87 %
10.11.2022 13:42 15,3 C 15,0 C 10,0 C 74 % 1025,9 hPa 0,0 l/m 2 min 0 min 326 W/m 22,5 km/h (4 Bft) 97,83 %
10.11.2022 13:44 15,3 C 15,0 C 10,6 C 74 % 1025,9 hPa 0,0 l/m 2 min 0 min 323 W/m 22,5 km/h (4 Bft) 95,74 %
10.11.2022 13:46 15,3 C 15,0 C 10,0 C 74 % 1025,9 hPa 0,0 l/m 2 min 0 min 312 W/m 19,3 km/h (3 Bft) 95,74 %
10.11.2022 13:48 15,3 C 15,0 C 10,6 C 74 % 1025,9 hPa 0,0 l/m 2 min 0 min 320 W/m 22,5 km/h (4 Bft) 95,74 %
10.11.2022 13:50 15,3 C 15,0 C 10,6 C 74 % 1025,9 hPa 0,0 l/m 2 min 0 min 321 W/m 16,1 km/h (3 Bft) 95,74 %
10.11.2022 13:52 15,2 C 15,6 C 10,0 C 74 % 1026,0 hPa 0,0 l/m 2 min 0 min 319 W/m 12,9 km/h (3 Bft) 93,48 %
10.11.2022 13:54 15,3 C 15,6 C 10,6 C 75 % 1026,0 hPa 0,0 l/m 2 min 0 min 330 W/m 12,9 km/h (3 Bft) 95,74 %
10.11.2022 13:56 15,3 C 15,6 C 10,6 C 75 % 1026,0 hPa 0,0 l/m 2 min 0 min 323 W/m 22,5 km/h (4 Bft) 95,74 %
10.11.2022 13:58 15,3 C 15,6 C 10,0 C 74 % 1026,0 hPa 0,0 l/m 2 min 0 min 320 W/m 29,0 km/h (5 Bft) 95,74 %
10.11.2022 14:00 15,2 C 15,0 C 10,0 C 74 % 1026,0 hPa 0,0 l/m 2 min 0 min 306 W/m 22,5 km/h (4 Bft) 97,87 %
10.11.2022 14:02 15,2 C 15,0 C 10,0 C 74 % 1026,1 hPa 0,0 l/m 2 min 0 min 261 W/m 19,3 km/h (3 Bft) 97,87 %
10.11.2022 14:04 15,2 C 15,0 C 10,0 C 74 % 1026,1 hPa 0,0 l/m 2 min 0 min 317 W/m 12,9 km/h (3 Bft) 97,83 %
10.11.2022 14:06 15,2 C 15,6 C 10,0 C 75 % 1026,1 hPa 0,0 l/m 2 min 0 min 308 W/m 12,9 km/h (3 Bft) 96,61 %
10.11.2022 14:08 15,2 C 15,6 C 10,6 C 75 % 1026,1 hPa 0,0 l/m 2 min 0 min 309 W/m 25,7 km/h (4 Bft) 97,14 %
10.11.2022 14:10 15,2 C 15,6 C 10,6 C 75 % 1026,0 hPa 0,0 l/m 2 min 0 min 305 W/m 25,7 km/h (4 Bft) 97,87 %
10.11.2022 14:12 15,2 C 15,0 C 10,6 C 74 % 1026,1 hPa 0,0 l/m 2 min 0 min 281 W/m 19,3 km/h (3 Bft) 97,87 %
10.11.2022 14:14 15,3 C 15,0 C 10,6 C 74 % 1026,0 hPa 0,0 l/m 2 min 0 min 286 W/m 29,0 km/h (5 Bft) 97,87 %
10.11.2022 14:16 15,3 C 15,0 C 10,6 C 74 % 1026,0 hPa 0,0 l/m 2 min 0 min 291 W/m 22,5 km/h (4 Bft) 97,83 %
10.11.2022 14:18 15,3 C 15,0 C 10,6 C 74 % 1026,0 hPa 0,0 l/m 2 min 0 min 290 W/m 29,0 km/h (5 Bft) 97,87 %
10.11.2022 14:20 15,3 C 15,6 C 10,6 C 74 % 1026,0 hPa 0,0 l/m 2 min 0 min 289 W/m 22,5 km/h (4 Bft) 95,74 %
10.11.2022 14:22 15,3 C 15,6 C 10,6 C 74 % 1025,9 hPa 0,0 l/m 2 min 0 min 285 W/m 19,3 km/h (3 Bft) 100,00 %
10.11.2022 14:24 15,3 C 15,6 C 10,6 C 74 % 1025,9 hPa 0,0 l/m 2 min 0 min 286 W/m 29,0 km/h (5 Bft) 95,74 %
10.11.2022 14:26 15,4 C 16,1 C 10,6 C 75 % 1026,1 hPa 0,0 l/m 2 min 0 min 280 W/m 19,3 km/h (3 Bft) 100,00 %
10.11.2022 14:28 15,4 C 15,6 C 10,6 C 74 % 1026,1 hPa 0,0 l/m 2 min 0 min 216 W/m 22,5 km/h (4 Bft) 100,00 %
10.11.2022 14:30 15,4 C 16,1 C 10,6 C 74 % 1026,1 hPa 0,0 l/m 2 min 0 min 253 W/m 25,7 km/h (4 Bft) 100,00 %
10.11.2022 14:32 15,4 C 16,7 C 10,6 C 75 % 1026,1 hPa 0,0 l/m 2 min 0 min 263 W/m 19,3 km/h (3 Bft) 97,87 %
10.11.2022 14:34 15,5 C 17,2 C 10,6 C 74 % 1026,1 hPa 0,0 l/m 2 min 0 min 171 W/m 19,3 km/h (3 Bft) 100,00 %
10.11.2022 14:36 15,6 C 16,7 C 10,6 C 74 % 1026,1 hPa 0,0 l/m 2 min 0 min 228 W/m 29,0 km/h (5 Bft) 100,00 %
10.11.2022 14:38 15,6 C 16,7 C 10,6 C 74 % 1026,1 hPa 0,0 l/m 2 min 0 min 259 W/m 16,1 km/h (3 Bft) 97,87 %
10.11.2022 14:40 15,6 C 16,1 C 10,6 C 73 % 1026,2 hPa 0,0 l/m 2 min 0 min 254 W/m 25,7 km/h (4 Bft) 100,00 %
10.11.2022 14:42 15,6 C 16,1 C 10,6 C 73 % 1026,1 hPa 0,0 l/m 2 min 0 min 248 W/m 29,0 km/h (5 Bft) 97,87 %
10.11.2022 14:44 15,6 C 16,1 C 10,6 C 72 % 1026,1 hPa 0,0 l/m 2 min 0 min 226 W/m 29,0 km/h (5 Bft) 100,00 %
10.11.2022 14:46 15,6 C 16,1 C 10,6 C 73 % 1026,1 hPa 0,0 l/m 2 min 0 min 239 W/m 12,9 km/h (3 Bft) 100,00 %
10.11.2022 14:48 15,7 C 16,1 C 10,6 C 73 % 1026,2 hPa 0,0 l/m 2 min 0 min 181 W/m 9,7 km/h (2 Bft) 100,00 %
10.11.2022 14:50 15,7 C 16,1 C 10,6 C 73 % 1026,2 hPa 0,0 l/m 2 min 0 min 198 W/m 16,1 km/h (3 Bft) 100,00 %
10.11.2022 14:52 15,7 C 16,1 C 10,6 C 73 % 1026,2 hPa 0,0 l/m 2 min 0 min 223 W/m 22,5 km/h (4 Bft) 100,00 %
10.11.2022 14:54 15,7 C 15,6 C 10,6 C 72 % 1026,1 hPa 0,0 l/m 2 min 0 min 217 W/m 9,7 km/h (2 Bft) 100,00 %
10.11.2022 14:56 15,7 C 15,6 C 10,6 C 72 % 1026,1 hPa 0,0 l/m 2 min 0 min 202 W/m 9,7 km/h (2 Bft) 100,00 %
10.11.2022 14:58 15,7 C 15,6 C 10,6 C 72 % 1026,1 hPa 0,0 l/m 2 min 0 min 191 W/m 9,7 km/h (2 Bft) 100,00 %
10.11.2022 15:00 15,7 C 15,0 C 10,6 C 72 % 1026,0 hPa 0,0 l/m 2 min 0 min 198 W/m 6,4 km/h (2 Bft) 100,00 %
10.11.2022 15:02 15,8 C 15,0 C 10,6 C 73 % 1026,1 hPa 0,0 l/m 2 min 0 min 204 W/m 6,4 km/h (2 Bft) 100,00 %
10.11.2022 15:04 15,8 C 15,0 C 10,6 C 73 % 1026,1 hPa 0,0 l/m 2 min 0 min 179 W/m 16,1 km/h (3 Bft) 100,00 %
10.11.2022 15:06 15,8 C 15,0 C 10,6 C 73 % 1026,1 hPa 0,0 l/m 2 min 0 min 113 W/m 12,9 km/h (3 Bft) 96,61 %
10.11.2022 15:08 15,7 C 15,0 C 10,6 C 72 % 1026,1 hPa 0,0 l/m 0 min 0 min 100 W/m 12,9 km/h (3 Bft) 97,14 %
10.11.2022 15:10 15,7 C 15,0 C 10,6 C 72 % 1026,0 hPa 0,0 l/m 0 min 0 min 84 W/m 22,5 km/h (4 Bft) 100,00 %
10.11.2022 15:12 15,6 C 14,4 C 10,6 C 71 % 1026,1 hPa 0,0 l/m 0 min 0 min 75 W/m 25,7 km/h (4 Bft) 97,87 %
10.11.2022 15:14 15,5 C 14,4 C 10,6 C 71 % 1026,0 hPa 0,0 l/m 0 min 0 min 99 W/m 22,5 km/h (4 Bft) 100,00 %
10.11.2022 15:16 15,4 C 14,4 C 10,6 C 72 % 1026,0 hPa 0,0 l/m 2 min 0 min 139 W/m 16,1 km/h (3 Bft) 97,83 %
10.11.2022 15:18 15,4 C 14,4 C 10,6 C 72 % 1026,0 hPa 0,0 l/m 2 min 0 min 140 W/m 16,1 km/h (3 Bft) 100,00 %
10.11.2022 15:20 15,4 C 14,4 C 10,6 C 72 % 1026,0 hPa 0,0 l/m 2 min 0 min 136 W/m 19,3 km/h (3 Bft) 100,00 %
10.11.2022 15:22 15,4 C 14,4 C 10,6 C 73 % 1026,1 hPa 0,0 l/m 2 min 0 min 104 W/m 22,5 km/h (4 Bft) 95,74 %
10.11.2022 15:24 15,3 C 14,4 C 10,6 C 73 % 1026,0 hPa 0,0 l/m 0 min 0 min 73 W/m 12,9 km/h (3 Bft) 97,87 %
10.11.2022 15:26 15,3 C 14,4 C 10,6 C 73 % 1026,1 hPa 0,0 l/m 0 min 0 min 57 W/m 12,9 km/h (3 Bft) 97,87 %
10.11.2022 15:28 15,3 C 14,4 C 10,6 C 74 % 1026,1 hPa 0,0 l/m 0 min 0 min 47 W/m 19,3 km/h (3 Bft) 97,87 %
10.11.2022 15:30 15,2 C 14,4 C 10,0 C 73 % 1026,2 hPa 0,0 l/m 0 min 0 min 43 W/m 16,1 km/h (3 Bft) 95,65 %
10.11.2022 15:32 15,2 C 14,4 C 10,0 C 73 % 1026,2 hPa 0,0 l/m 0 min 0 min 42 W/m 16,1 km/h (3 Bft) 95,74 %
10.11.2022 15:34 15,1 C 14,4 C 10,0 C 73 % 1026,2 hPa 0,0 l/m 0 min 0 min 43 W/m 25,7 km/h (4 Bft) 95,74 %
10.11.2022 15:36 15,1 C 14,4 C 10,0 C 73 % 1026,1 hPa 0,0 l/m 0 min 0 min 44 W/m 19,3 km/h (3 Bft) 97,87 %
10.11.2022 15:38 15,0 C 14,4 C 10,0 C 73 % 1026,1 hPa 0,0 l/m 0 min 0 min 45 W/m 16,1 km/h (3 Bft) 95,74 %
10.11.2022 15:40 14,9 C 13,9 C 10,0 C 73 % 1026,1 hPa 0,0 l/m 0 min 0 min 46 W/m 12,9 km/h (3 Bft) 97,83 %
10.11.2022 15:42 14,9 C 13,9 C 10,0 C 73 % 1026,1 hPa 0,0 l/m 0 min 0 min 46 W/m 12,9 km/h (3 Bft) 95,74 %
10.11.2022 15:44 14,8 C 13,9 C 10,0 C 73 % 1026,1 hPa 0,0 l/m 0 min 0 min 47 W/m 19,3 km/h (3 Bft) 95,74 %
10.11.2022 15:46 14,8 C 13,9 C 10,0 C 74 % 1026,1 hPa 0,0 l/m 0 min 0 min 47 W/m 19,3 km/h (3 Bft) 95,74 %
10.11.2022 15:48 14,8 C 13,9 C 10,0 C 74 % 1026,1 hPa 0,0 l/m 0 min 0 min 46 W/m 16,1 km/h (3 Bft) 97,87 %
10.11.2022 15:50 14,7 C 13,9 C 10,0 C 74 % 1026,1 hPa 0,0 l/m 0 min 0 min 46 W/m 22,5 km/h (4 Bft) 95,74 %
10.11.2022 15:52 14,7 C 13,9 C 10,0 C 74 % 1026,0 hPa 0,0 l/m 0 min 0 min 46 W/m 16,1 km/h (3 Bft) 93,48 %
10.11.2022 15:54 14,7 C 13,9 C 9,4 C 74 % 1026,1 hPa 0,0 l/m 0 min 0 min 44 W/m 12,9 km/h (3 Bft) 91,49 %
10.11.2022 15:56 14,7 C 13,9 C 9,4 C 74 % 1026,1 hPa 0,0 l/m 0 min 0 min 44 W/m 16,1 km/h (3 Bft) 95,74 %
10.11.2022 15:58 14,6 C 13,9 C 9,4 C 74 % 1026,1 hPa 0,0 l/m 0 min 0 min 42 W/m 19,3 km/h (3 Bft) 93,62 %
10.11.2022 16:00 14,6 C 13,9 C 9,4 C 74 % 1026,1 hPa 0,0 l/m 0 min 0 min 42 W/m 16,1 km/h (3 Bft) 93,62 %
10.11.2022 16:02 14,6 C 13,9 C 9,4 C 75 % 1026,1 hPa 0,0 l/m 0 min 0 min 41 W/m 16,1 km/h (3 Bft) 91,49 %
10.11.2022 16:04 14,5 C 13,9 C 9,4 C 75 % 1026,2 hPa 0,0 l/m 0 min 0 min 40 W/m 19,3 km/h (3 Bft) 93,48 %
10.11.2022 16:06 14,4 C 13,9 C 9,4 C 75 % 1026,3 hPa 0,0 l/m 0 min 0 min 38 W/m 16,1 km/h (3 Bft) 94,92 %
10.11.2022 16:08 14,4 C 13,9 C 9,4 C 75 % 1026,2 hPa 0,0 l/m 0 min 0 min 36 W/m 12,9 km/h (3 Bft) 97,14 %
10.11.2022 16:10 14,4 C 13,9 C 9,4 C 75 % 1026,2 hPa 0,0 l/m 0 min 0 min 33 W/m 9,7 km/h (2 Bft) 93,62 %
10.11.2022 16:12 14,3 C 13,3 C 9,4 C 75 % 1026,3 hPa 0,0 l/m 0 min 0 min 32 W/m 6,4 km/h (2 Bft) 95,74 %
10.11.2022 16:14 14,3 C 13,3 C 9,4 C 75 % 1026,3 hPa 0,0 l/m 0 min 0 min 30 W/m 12,9 km/h (3 Bft) 93,62 %
10.11.2022 16:16 14,3 C 13,3 C 9,4 C 75 % 1026,3 hPa 0,0 l/m 0 min 0 min 28 W/m 9,7 km/h (2 Bft) 95,65 %
10.11.2022 16:18 14,3 C 13,3 C 9,4 C 75 % 1026,3 hPa 0,0 l/m 0 min 0 min 27 W/m 9,7 km/h (2 Bft) 93,62 %
10.11.2022 16:20 14,3 C 13,3 C 9,4 C 76 % 1026,4 hPa 0,0 l/m 0 min 0 min 26 W/m 9,7 km/h (2 Bft) 95,74 %
10.11.2022 16:22 14,3 C 13,3 C 9,4 C 76 % 1026,5 hPa 0,0 l/m 0 min 0 min 24 W/m 9,7 km/h (2 Bft) 89,36 %
10.11.2022 16:24 14,3 C 13,3 C 9,4 C 76 % 1026,4 hPa 0,0 l/m 0 min 0 min 22 W/m 9,7 km/h (2 Bft) 95,74 %
10.11.2022 16:26 14,3 C 13,3 C 9,4 C 76 % 1026,4 hPa 0,0 l/m 0 min 0 min 20 W/m 12,9 km/h (3 Bft) 97,87 %
10.11.2022 16:28 14,3 C 13,3 C 8,9 C 77 % 1026,3 hPa 0,0 l/m 0 min 0 min 19 W/m 6,4 km/h (2 Bft) 95,65 %
10.11.2022 16:30 14,3 C 13,3 C 8,9 C 77 % 1026,2 hPa 0,0 l/m 0 min 0 min 17 W/m 9,7 km/h (2 Bft) 95,74 %
10.11.2022 16:32 14,2 C 12,8 C 8,9 C 77 % 1026,3 hPa 0,0 l/m 0 min 0 min 15 W/m 3,2 km/h (1 Bft) 97,87 %
10.11.2022 16:34 14,2 C 12,8 C 8,9 C 77 % 1026,3 hPa 0,0 l/m 0 min 0 min 13 W/m 12,9 km/h (3 Bft) 97,87 %
10.11.2022 16:36 14,1 C 12,8 C 8,9 C 77 % 1026,4 hPa 0,0 l/m 0 min 0 min 12 W/m 12,9 km/h (3 Bft) 95,74 %
10.11.2022 16:38 14,1 C 12,8 C 8,9 C 77 % 1026,4 hPa 0,0 l/m 0 min 0 min 10 W/m 6,4 km/h (2 Bft) 97,87 %
10.11.2022 16:40 14,1 C 12,8 C 8,9 C 77 % 1026,4 hPa 0,0 l/m 0 min 0 min 8 W/m 9,7 km/h (2 Bft) 97,83 %
10.11.2022 16:42 14,1 C 12,8 C 8,9 C 77 % 1026,4 hPa 0,0 l/m 0 min 0 min 7 W/m 16,1 km/h (3 Bft) 100,00 %
10.11.2022 16:44 14,0 C 12,8 C 8,9 C 77 % 1026,5 hPa 0,0 l/m 0 min 0 min 5 W/m 9,7 km/h (2 Bft) 93,62 %
10.11.2022 16:46 13,9 C 12,8 C 8,9 C 77 % 1026,5 hPa 0,0 l/m 0 min 0 min 1 W/m 9,7 km/h (2 Bft) 97,87 %
10.11.2022 16:48 13,9 C 12,8 C 8,9 C 78 % 1026,5 hPa 0,0 l/m 0 min 0 min 0 W/m 3,2 km/h (1 Bft) 100,00 %
10.11.2022 16:50 13,9 C 12,8 C 8,9 C 78 % 1026,5 hPa 0,0 l/m 0 min 0 min 0 W/m 9,7 km/h (2 Bft) 100,00 %
10.11.2022 16:52 13,8 C 12,8 C 8,9 C 78 % 1026,6 hPa 0,0 l/m 0 min 0 min 0 W/m 3,2 km/h (1 Bft) 100,00 %
10.11.2022 16:54 13,8 C 12,8 C 8,9 C 78 % 1026,6 hPa 0,0 l/m 0 min 0 min 0 W/m 3,2 km/h (1 Bft) 100,00 %
10.11.2022 16:56 13,8 C 12,2 C 8,9 C 78 % 1026,5 hPa 0,0 l/m 0 min 0 min 0 W/m 3,2 km/h (1 Bft) 97,87 %
10.11.2022 16:58 13,7 C 12,2 C 8,9 C 78 % 1026,6 hPa 0,0 l/m 0 min 0 min 0 W/m 3,2 km/h (1 Bft) 100,00 %
10.11.2022 17:00 13,7 C 12,2 C 8,9 C 78 % 1026,5 hPa 0,0 l/m 0 min 0 min 0 W/m 6,4 km/h (2 Bft) 97,87 %
10.11.2022 17:02 13,6 C 12,2 C 8,9 C 79 % 1026,5 hPa 0,0 l/m 0 min 0 min 0 W/m 6,4 km/h (2 Bft) 97,83 %
10.11.2022 17:04 13,6 C 12,2 C 8,9 C 79 % 1026,4 hPa 0,0 l/m 0 min 0 min 0 W/m 3,2 km/h (1 Bft) 97,87 %
10.11.2022 17:06 13,5 C 12,2 C 8,9 C 79 % 1026,5 hPa 0,0 l/m 0 min 0 min 0 W/m 12,9 km/h (3 Bft) 100,00 %
10.11.2022 17:08 13,5 C 12,2 C 8,9 C 79 % 1026,5 hPa 0,0 l/m 0 min 0 min 0 W/m 6,4 km/h (2 Bft) 100,00 %
10.11.2022 17:10 13,4 C 12,2 C 8,3 C 79 % 1026,6 hPa 0,0 l/m 0 min 0 min 0 W/m 12,9 km/h (3 Bft) 100,00 %
10.11.2022 17:12 13,4 C 12,2 C 8,3 C 79 % 1026,7 hPa 0,0 l/m 0 min 0 min 0 W/m 16,1 km/h (3 Bft) 97,87 %
10.11.2022 17:14 13,4 C 12,2 C 8,3 C 79 % 1026,7 hPa 0,0 l/m 0 min 0 min 0 W/m 19,3 km/h (3 Bft) 100,00 %
10.11.2022 17:16 13,3 C 12,2 C 8,3 C 79 % 1026,7 hPa 0,0 l/m 0 min 0 min 0 W/m 16,1 km/h (3 Bft) 100,00 %
10.11.2022 17:18 13,3 C 12,2 C 8,3 C 79 % 1026,8 hPa 0,0 l/m 0 min 0 min 0 W/m 12,9 km/h (3 Bft) 100,00 %
10.11.2022 17:20 13,3 C 12,2 C 8,3 C 80 % 1026,9 hPa 0,0 l/m 0 min 0 min 0 W/m 12,9 km/h (3 Bft) 97,87 %
10.11.2022 17:22 13,2 C 12,2 C 8,3 C 80 % 1026,9 hPa 0,0 l/m 0 min 0 min 0 W/m 6,4 km/h (2 Bft) 100,00 %
10.11.2022 17:24 13,2 C 12,2 C 8,3 C 80 % 1026,9 hPa 0,0 l/m 0 min 0 min 0 W/m 16,1 km/h (3 Bft) 100,00 %
10.11.2022 17:26 13,2 C 12,2 C 8,3 C 80 % 1027,0 hPa 0,0 l/m 0 min 0 min 0 W/m 9,7 km/h (2 Bft) 100,00 %
10.11.2022 17:28 13,2 C 12,2 C 8,3 C 80 % 1027,1 hPa 0,0 l/m 0 min 0 min 0 W/m 9,7 km/h (2 Bft) 100,00 %
10.11.2022 17:30 13,1 C 12,2 C 8,3 C 80 % 1027,1 hPa 0,0 l/m 0 min 0 min 0 W/m 19,3 km/h (3 Bft) 95,74 %
10.11.2022 17:32 13,1 C 12,2 C 8,3 C 80 % 1027,1 hPa 0,0 l/m 0 min 0 min 0 W/m 16,1 km/h (3 Bft) 100,00 %
10.11.2022 17:34 13,1 C 12,2 C 8,3 C 80 % 1027,2 hPa 0,0 l/m 0 min 0 min 0 W/m 12,9 km/h (3 Bft) 100,00 %
10.11.2022 17:36 13,0 C 11,7 C 8,3 C 80 % 1027,2 hPa 0,0 l/m 0 min 0 min 0 W/m 12,9 km/h (3 Bft) 97,87 %
10.11.2022 17:38 13,0 C 11,7 C 8,3 C 80 % 1027,2 hPa 0,0 l/m 0 min 0 min 0 W/m 12,9 km/h (3 Bft) 100,00 %
10.11.2022 17:40 12,9 C 11,7 C 8,3 C 80 % 1027,2 hPa 0,0 l/m 0 min 0 min 0 W/m 12,9 km/h (3 Bft) 100,00 %
10.11.2022 17:42 12,9 C 11,7 C 8,3 C 80 % 1027,2 hPa 0,0 l/m 0 min 0 min 0 W/m 12,9 km/h (3 Bft) 100,00 %
10.11.2022 17:44 12,9 C 11,7 C 8,3 C 80 % 1027,2 hPa 0,0 l/m 0 min 0 min 0 W/m 12,9 km/h (3 Bft) 95,74 %
10.11.2022 17:46 12,8 C 11,7 C 7,8 C 81 % 1027,2 hPa 0,0 l/m 0 min 0 min 0 W/m 16,1 km/h (3 Bft) 97,87 %
10.11.2022 17:48 12,8 C 11,7 C 7,8 C 80 % 1027,2 hPa 0,0 l/m 0 min 0 min 0 W/m 19,3 km/h (3 Bft) 97,87 %
10.11.2022 17:50 12,8 C 11,7 C 7,8 C 81 % 1027,2 hPa 0,0 l/m 0 min 0 min 0 W/m 12,9 km/h (3 Bft) 91,49 %
10.11.2022 17:52 12,7 C 11,7 C 7,8 C 81 % 1027,2 hPa 0,0 l/m 0 min 0 min 0 W/m 12,9 km/h (3 Bft) 95,65 %
10.11.2022 17:54 12,7 C 11,7 C 7,8 C 81 % 1027,2 hPa 0,0 l/m 0 min 0 min 0 W/m 19,3 km/h (3 Bft) 97,87 %
10.11.2022 17:56 12,7 C 11,7 C 7,8 C 81 % 1027,1 hPa 0,0 l/m 0 min 0 min 0 W/m 9,7 km/h (2 Bft) 97,87 %
10.11.2022 17:58 12,6 C 11,7 C 7,8 C 81 % 1027,2 hPa 0,0 l/m 0 min 0 min 0 W/m 22,5 km/h (4 Bft) 95,74 %
10.11.2022 18:00 12,6 C 11,7 C 7,8 C 81 % 1027,2 hPa 0,0 l/m 0 min 0 min 0 W/m 19,3 km/h (3 Bft) 95,74 %
10.11.2022 18:02 12,6 C 11,7 C 7,8 C 81 % 1027,2 hPa 0,0 l/m 0 min 0 min 0 W/m 16,1 km/h (3 Bft) 93,62 %
10.11.2022 18:04 12,6 C 11,7 C 7,8 C 81 % 1027,2 hPa 0,0 l/m 0 min 0 min 0 W/m 6,4 km/h (2 Bft) 93,48 %
10.11.2022 18:08 12,5 C 11,7 C 7,8 C 81 % 1027,3 hPa 0,0 l/m 0 min 0 min 0 W/m 16,1 km/h (3 Bft) 95,83 %
10.11.2022 18:10 12,5 C 11,7 C 7,8 C 81 % 1027,4 hPa 0,0 l/m 0 min 0 min 0 W/m 16,1 km/h (3 Bft) 95,74 %
10.11.2022 18:12 12,5 C 11,7 C 7,8 C 81 % 1027,4 hPa 0,0 l/m 0 min 0 min 0 W/m 16,1 km/h (3 Bft) 95,74 %
10.11.2022 18:14 12,5 C 11,7 C 7,8 C 81 % 1027,5 hPa 0,0 l/m 0 min 0 min 0 W/m 16,1 km/h (3 Bft) 93,48 %
10.11.2022 18:16 12,4 C 11,7 C 7,8 C 81 % 1027,5 hPa 0,0 l/m 0 min 0 min 0 W/m 22,5 km/h (4 Bft) 95,74 %
10.11.2022 18:18 12,4 C 11,7 C 7,8 C 81 % 1027,5 hPa 0,0 l/m 0 min 0 min 0 W/m 12,9 km/h (3 Bft) 95,74 %
10.11.2022 18:20 12,4 C 11,7 C 7,8 C 81 % 1027,6 hPa 0,0 l/m 0 min 0 min 0 W/m 12,9 km/h (3 Bft) 97,87 %
10.11.2022 18:22 12,4 C 11,7 C 7,8 C 81 % 1027,6 hPa 0,0 l/m 0 min 0 min 0 W/m 16,1 km/h (3 Bft) 97,87 %
10.11.2022 18:24 12,4 C 11,7 C 7,8 C 81 % 1027,6 hPa 0,0 l/m 0 min 0 min 0 W/m 16,1 km/h (3 Bft) 95,74 %
10.11.2022 18:26 12,4 C 11,7 C 7,8 C 81 % 1027,6 hPa 0,0 l/m 0 min 0 min 0 W/m 12,9 km/h (3 Bft) 95,65 %
10.11.2022 18:28 12,4 C 11,7 C 7,8 C 81 % 1027,6 hPa 0,0 l/m 0 min 0 min 0 W/m 16,1 km/h (3 Bft) 95,74 %
10.11.2022 18:30 12,4 C 11,7 C 7,8 C 81 % 1027,6 hPa 0,0 l/m 0 min 0 min 0 W/m 12,9 km/h (3 Bft) 97,87 %
10.11.2022 18:32 12,3 C 11,7 C 7,8 C 81 % 1027,6 hPa 0,0 l/m 0 min 0 min 0 W/m 16,1 km/h (3 Bft) 97,87 %
10.11.2022 18:34 12,3 C 11,7 C 7,8 C 81 % 1027,6 hPa 0,0 l/m 0 min 0 min 0 W/m 6,4 km/h (2 Bft) 97,87 %
10.11.2022 18:36 12,3 C 11,7 C 7,8 C 81 % 1027,7 hPa 0,0 l/m 0 min 0 min 0 W/m 12,9 km/h (3 Bft) 97,87 %
10.11.2022 18:38 12,3 C 11,7 C 7,8 C 81 % 1027,7 hPa 0,0 l/m 0 min 0 min 0 W/m 19,3 km/h (3 Bft) 97,83 %
10.11.2022 18:40 12,3 C 11,7 C 7,8 C 81 % 1027,8 hPa 0,0 l/m 0 min 0 min 0 W/m 12,9 km/h (3 Bft) 97,87 %
10.11.2022 18:42 12,3 C 11,7 C 7,8 C 81 % 1027,9 hPa 0,0 l/m 0 min 0 min 0 W/m 25,7 km/h (4 Bft) 100,00 %
10.11.2022 18:44 12,3 C 11,7 C 7,8 C 81 % 1027,9 hPa 0,0 l/m 0 min 0 min 0 W/m 16,1 km/h (3 Bft) 100,00 %
10.11.2022 18:46 12,3 C 11,7 C 7,8 C 81 % 1027,9 hPa 0,0 l/m 0 min 0 min 0 W/m 16,1 km/h (3 Bft) 100,00 %
10.11.2022 18:48 12,3 C 11,7 C 7,8 C 81 % 1027,9 hPa 0,0 l/m 0 min 0 min 0 W/m 19,3 km/h (3 Bft) 100,00 %
10.11.2022 18:50 12,3 C 11,7 C 7,8 C 81 % 1027,9 hPa 0,0 l/m 0 min 0 min 0 W/m 12,9 km/h (3 Bft) 100,00 %
10.11.2022 18:52 12,3 C 11,7 C 7,8 C 81 % 1028,0 hPa 0,0 l/m 0 min 0 min 0 W/m 19,3 km/h (3 Bft) 100,00 %
10.11.2022 18:54 12,3 C 11,7 C 7,8 C 81 % 1027,9 hPa 0,0 l/m 0 min 0 min 0 W/m 19,3 km/h (3 Bft) 100,00 %
10.11.2022 18:56 12,3 C 11,7 C 7,8 C 81 % 1027,9 hPa 0,0 l/m 0 min 0 min 0 W/m 9,7 km/h (2 Bft) 100,00 %
10.11.2022 18:58 12,3 C 11,7 C 7,8 C 81 % 1027,9 hPa 0,0 l/m 0 min 0 min 0 W/m 19,3 km/h (3 Bft) 97,87 %
10.11.2022 19:00 12,3 C 11,7 C 7,8 C 81 % 1027,9 hPa 0,0 l/m 0 min 0 min 0 W/m 16,1 km/h (3 Bft) 97,87 %
10.11.2022 19:02 12,3 C 11,1 C 7,8 C 81 % 1027,9 hPa 0,0 l/m 0 min 0 min 0 W/m 12,9 km/h (3 Bft) 95,65 %
10.11.2022 19:04 12,3 C 11,1 C 7,8 C 81 % 1027,9 hPa 0,0 l/m 0 min 0 min 0 W/m 16,1 km/h (3 Bft) 97,87 %
10.11.2022 19:06 12,2 C 11,1 C 7,8 C 81 % 1027,9 hPa 0,0 l/m 0 min 0 min 0 W/m 19,3 km/h (3 Bft) 97,87 %
10.11.2022 19:08 12,2 C 11,1 C 7,8 C 81 % 1027,9 hPa 0,0 l/m 0 min 0 min 0 W/m 9,7 km/h (2 Bft) 97,87 %
10.11.2022 19:10 12,2 C 11,1 C 7,8 C 81 % 1028,0 hPa 0,0 l/m 0 min 0 min 0 W/m 16,1 km/h (3 Bft) 95,74 %
10.11.2022 19:12 12,1 C 11,1 C 7,8 C 81 % 1028,0 hPa 0,0 l/m 0 min 0 min 0 W/m 12,9 km/h (3 Bft) 97,87 %
10.11.2022 19:14 12,1 C 11,1 C 7,8 C 81 % 1027,9 hPa 0,0 l/m 0 min 0 min 0 W/m 16,1 km/h (3 Bft) 97,83 %
10.11.2022 19:16 12,1 C 11,1 C 7,2 C 81 % 1028,0 hPa 0,0 l/m 0 min 0 min 0 W/m 19,3 km/h (3 Bft) 97,87 %
10.11.2022 19:18 12,1 C 11,1 C 7,2 C 81 % 1028,1 hPa 0,0 l/m 0 min 0 min 0 W/m 6,4 km/h (2 Bft) 95,74 %
10.11.2022 19:20 12,0 C 10,6 C 7,2 C 81 % 1028,0 hPa 0,0 l/m 0 min 0 min 0 W/m 9,7 km/h (2 Bft) 93,62 %
10.11.2022 19:22 11,9 C 10,6 C 7,2 C 82 % 1028,0 hPa 0,0 l/m 0 min 0 min 0 W/m 3,2 km/h (1 Bft) 95,74 %
10.11.2022 19:24 11,9 C 10,6 C 7,2 C 82 % 1028,0 hPa 0,0 l/m 0 min 0 min 0 W/m 6,4 km/h (2 Bft) 97,87 %
10.11.2022 19:26 11,8 C 10,6 C 7,2 C 82 % 1028,0 hPa 0,0 l/m 0 min 0 min 0 W/m 12,9 km/h (3 Bft) 95,65 %
10.11.2022 19:28 11,8 C 10,6 C 7,2 C 82 % 1028,0 hPa 0,0 l/m 0 min 0 min 0 W/m 3,2 km/h (1 Bft) 95,74 %
10.11.2022 19:30 11,8 C 10,6 C 7,2 C 82 % 1028,0 hPa 0,0 l/m 0 min 0 min 0 W/m 6,4 km/h (2 Bft) 97,87 %
10.11.2022 19:32 11,7 C 10,6 C 7,2 C 82 % 1028,0 hPa 0,0 l/m 0 min 0 min 0 W/m 6,4 km/h (2 Bft) 97,87 %
10.11.2022 19:34 11,7 C 10,6 C 7,2 C 82 % 1028,0 hPa 0,0 l/m 0 min 0 min 0 W/m 6,4 km/h (2 Bft) 95,92 %
10.11.2022 19:36 11,7 C 10,6 C 7,2 C 82 % 1028,0 hPa 0,0 l/m 0 min 0 min 0 W/m 6,4 km/h (2 Bft) 93,62 %
10.11.2022 19:38 11,6 C 10,6 C 7,2 C 82 % 1028,1 hPa 0,0 l/m 0 min 0 min 0 W/m 6,4 km/h (2 Bft) 95,65 %
10.11.2022 19:40 11,6 C 10,6 C 7,2 C 82 % 1028,1 hPa 0,0 l/m 0 min 0 min 0 W/m 9,7 km/h (2 Bft) 95,74 %
10.11.2022 19:42 11,6 C 10,6 C 6,7 C 82 % 1028,2 hPa 0,0 l/m 0 min 0 min 0 W/m 6,4 km/h (2 Bft) 95,74 %
10.11.2022 19:44 11,5 C 10,0 C 6,7 C 83 % 1028,2 hPa 0,0 l/m 0 min 0 min 0 W/m 3,2 km/h (1 Bft) 95,74 %
10.11.2022 19:46 11,4 C 10,0 C 6,7 C 83 % 1028,3 hPa 0,0 l/m 0 min 0 min 0 W/m 3,2 km/h (1 Bft) 95,74 %
10.11.2022 19:48 11,4 C 10,0 C 6,7 C 83 % 1028,2 hPa 0,0 l/m 0 min 0 min 0 W/m 3,2 km/h (1 Bft) 97,87 %
10.11.2022 19:50 11,4 C 10,0 C 6,7 C 83 % 1028,2 hPa 0,0 l/m 0 min 0 min 0 W/m 6,4 km/h (2 Bft) 97,83 %
10.11.2022 19:52 11,3 C 10,0 C 6,7 C 83 % 1028,2 hPa 0,0 l/m 0 min 0 min 0 W/m 3,2 km/h (1 Bft) 95,74 %
10.11.2022 19:54 11,3 C 10,0 C 6,7 C 83 % 1028,2 hPa 0,0 l/m 0 min 0 min 0 W/m 6,4 km/h (2 Bft) 95,74 %
10.11.2022 19:56 11,2 C 10,0 C 6,7 C 83 % 1028,3 hPa 0,0 l/m 0 min 0 min 0 W/m 12,9 km/h (3 Bft) 97,87 %
10.11.2022 19:58 11,2 C 10,0 C 6,7 C 83 % 1028,2 hPa 0,0 l/m 0 min 0 min 0 W/m 12,9 km/h (3 Bft) 97,87 %
10.11.2022 20:00 11,2 C 10,0 C 6,7 C 83 % 1028,3 hPa 0,0 l/m 0 min 0 min 0 W/m 19,3 km/h (3 Bft) 97,87 %
10.11.2022 20:02 11,1 C 10,0 C 6,7 C 83 % 1028,3 hPa 0,0 l/m 0 min 0 min 0 W/m 6,4 km/h (2 Bft) 95,65 %
10.11.2022 20:04 11,1 C 10,0 C 6,7 C 83 % 1028,3 hPa 0,0 l/m 0 min 0 min 0 W/m 12,9 km/h (3 Bft) 95,74 %
10.11.2022 20:06 11,1 C 10,0 C 6,7 C 83 % 1028,3 hPa 0,0 l/m 0 min 0 min 0 W/m 9,7 km/h (2 Bft) 97,87 %
10.11.2022 20:08 11,1 C 10,0 C 6,7 C 83 % 1028,3 hPa 0,0 l/m 0 min 0 min 0 W/m 9,7 km/h (2 Bft) 100,00 %
10.11.2022 20:10 11,0 C 10,0 C 6,7 C 84 % 1028,3 hPa 0,0 l/m 0 min 0 min 0 W/m 6,4 km/h (2 Bft) 97,87 %
10.11.2022 20:12 11,0 C 10,0 C 6,7 C 84 % 1028,3 hPa 0,0 l/m 0 min 0 min 0 W/m 9,7 km/h (2 Bft) 100,00 %
10.11.2022 20:14 10,9 C 10,0 C 6,7 C 84 % 1028,3 hPa 0,0 l/m 0 min 0 min 0 W/m 9,7 km/h (2 Bft) 100,00 %
10.11.2022 20:16 10,9 C 10,0 C 6,7 C 84 % 1028,3 hPa 0,0 l/m 0 min 0 min 0 W/m 12,9 km/h (3 Bft) 100,00 %
10.11.2022 20:18 10,9 C 10,0 C 6,7 C 84 % 1028,4 hPa 0,0 l/m 0 min 0 min 0 W/m 6,4 km/h (2 Bft) 100,00 %
10.11.2022 20:20 10,9 C 10,0 C 6,7 C 84 % 1028,4 hPa 0,0 l/m 0 min 0 min 0 W/m 6,4 km/h (2 Bft) 95,74 %
10.11.2022 20:22 10,9 C 10,0 C 6,7 C 84 % 1028,4 hPa 0,0 l/m 0 min 0 min 0 W/m 3,2 km/h (1 Bft) 100,00 %
10.11.2022 20:24 10,8 C 10,0 C 6,7 C 84 % 1028,4 hPa 0,0 l/m 0 min 0 min 0 W/m 6,4 km/h (2 Bft) 100,00 %
10.11.2022 20:26 10,8 C 10,0 C 6,7 C 84 % 1028,4 hPa 0,0 l/m 0 min 0 min 0 W/m 3,2 km/h (1 Bft) 100,00 %
10.11.2022 20:28 10,8 C 10,0 C 6,7 C 84 % 1028,4 hPa 0,0 l/m 0 min 0 min 0 W/m 12,9 km/h (3 Bft) 97,87 %
10.11.2022 20:30 10,8 C 10,0 C 6,7 C 84 % 1028,4 hPa 0,0 l/m 0 min 0 min 0 W/m 3,2 km/h (1 Bft) 97,87 %
10.11.2022 20:32 10,8 C 10,0 C 6,7 C 84 % 1028,3 hPa 0,0 l/m 0 min 0 min 0 W/m 3,2 km/h (1 Bft) 93,62 %
10.11.2022 20:34 10,7 C 9,4 C 6,7 C 84 % 1028,3 hPa 0,0 l/m 0 min 0 min 0 W/m 6,4 km/h (2 Bft) 95,74 %
10.11.2022 20:36 10,7 C 9,4 C 6,7 C 84 % 1028,3 hPa 0,0 l/m 0 min 0 min 0 W/m 6,4 km/h (2 Bft) 95,74 %
10.11.2022 20:38 10,7 C 9,4 C 6,7 C 84 % 1028,2 hPa 0,0 l/m 0 min 0 min 0 W/m 6,4 km/h (2 Bft) 95,65 %
10.11.2022 20:40 10,7 C 9,4 C 6,7 C 84 % 1028,2 hPa 0,0 l/m 0 min 0 min 0 W/m 6,4 km/h (2 Bft) 97,87 %
10.11.2022 20:42 10,7 C 9,4 C 6,7 C 84 % 1028,2 hPa 0,0 l/m 0 min 0 min 0 W/m 9,7 km/h (2 Bft) 97,87 %
10.11.2022 20:44 10,6 C 9,4 C 6,1 C 85 % 1028,2 hPa 0,0 l/m 0 min 0 min 0 W/m 6,4 km/h (2 Bft) 95,74 %
10.11.2022 20:46 10,6 C 9,4 C 6,1 C 85 % 1028,2 hPa 0,0 l/m 0 min 0 min 0 W/m 6,4 km/h (2 Bft) 97,87 %
10.11.2022 20:48 10,6 C 9,4 C 6,1 C 85 % 1028,3 hPa 0,0 l/m 0 min 0 min 0 W/m 6,4 km/h (2 Bft) 97,87 %
10.11.2022 20:50 10,6 C 9,4 C 6,1 C 85 % 1028,3 hPa 0,0 l/m 0 min 0 min 0 W/m 6,4 km/h (2 Bft) 97,83 %
10.11.2022 20:52 10,5 C 9,4 C 6,1 C 85 % 1028,3 hPa 0,0 l/m 0 min 0 min 0 W/m 6,4 km/h (2 Bft) 97,87 %
10.11.2022 20:54 10,4 C 9,4 C 6,1 C 85 % 1028,3 hPa 0,0 l/m 0 min 0 min 0 W/m 12,9 km/h (3 Bft) 97,87 %
10.11.2022 20:56 10,4 C 9,4 C 6,1 C 85 % 1028,4 hPa 0,0 l/m 0 min 0 min 0 W/m 9,7 km/h (2 Bft) 97,87 %
10.11.2022 20:58 10,4 C 9,4 C 6,1 C 85 % 1028,4 hPa 0,0 l/m 0 min 0 min 0 W/m 6,4 km/h (2 Bft) 97,87 %
10.11.2022 21:00 10,4 C 9,4 C 6,1 C 85 % 1028,4 hPa 0,0 l/m 0 min 0 min 0 W/m 6,4 km/h (2 Bft) 95,65 %
10.11.2022 21:02 10,3 C 9,4 C 6,1 C 85 % 1028,4 hPa 0,0 l/m 0 min 0 min 0 W/m 6,4 km/h (2 Bft) 95,74 %
10.11.2022 21:04 10,3 C 9,4 C 6,1 C 85 % 1028,4 hPa 0,0 l/m 0 min 0 min 0 W/m 12,9 km/h (3 Bft) 97,62 %
10.11.2022 21:06 10,3 C 9,4 C 6,1 C 85 % 1028,3 hPa 0,0 l/m 0 min 0 min 0 W/m 16,1 km/h (3 Bft) 98,31 %
10.11.2022 21:08 10,2 C 9,4 C 6,1 C 85 % 1028,3 hPa 0,0 l/m 0 min 0 min 0 W/m 12,9 km/h (3 Bft) 97,14 %
10.11.2022 21:10 10,2 C 9,4 C 6,1 C 85 % 1028,3 hPa 0,0 l/m 0 min 0 min 0 W/m 12,9 km/h (3 Bft) 97,87 %
10.11.2022 21:12 10,2 C 9,4 C 6,1 C 86 % 1028,4 hPa 0,0 l/m 0 min 0 min 0 W/m 6,4 km/h (2 Bft) 97,87 %
10.11.2022 21:14 10,1 C 8,9 C 6,1 C 86 % 1028,4 hPa 0,0 l/m 0 min 0 min 0 W/m 12,9 km/h (3 Bft) 100,00 %
10.11.2022 21:16 10,1 C 8,9 C 6,1 C 86 % 1028,4 hPa 0,0 l/m 0 min 0 min 0 W/m 6,4 km/h (2 Bft) 100,00 %
10.11.2022 21:18 10,1 C 8,9 C 6,1 C 86 % 1028,4 hPa 0,0 l/m 0 min 0 min 0 W/m 16,1 km/h (3 Bft) 100,00 %
10.11.2022 21:20 10,1 C 8,9 C 5,6 C 86 % 1028,4 hPa 0,0 l/m 0 min 0 min 0 W/m 6,4 km/h (2 Bft) 97,87 %
10.11.2022 21:22 10,1 C 8,9 C 5,6 C 86 % 1028,3 hPa 0,0 l/m 0 min 0 min 0 W/m 6,4 km/h (2 Bft) 97,87 %
10.11.2022 21:24 10,0 C 8,9 C 5,6 C 86 % 1028,3 hPa 0,0 l/m 0 min 0 min 0 W/m 16,1 km/h (3 Bft) 97,87 %
10.11.2022 21:26 9,9 C 8,9 C 5,6 C 86 % 1028,2 hPa 0,0 l/m 0 min 0 min 0 W/m 12,9 km/h (3 Bft) 97,83 %
10.11.2022 21:28 9,9 C 8,9 C 5,6 C 86 % 1028,3 hPa 0,0 l/m 0 min 0 min 0 W/m 16,1 km/h (3 Bft) 97,87 %
10.11.2022 21:30 9,8 C 8,9 C 5,6 C 87 % 1028,3 hPa 0,0 l/m 0 min 0 min 0 W/m 6,4 km/h (2 Bft) 97,87 %
10.11.2022 21:32 9,8 C 8,9 C 5,6 C 87 % 1028,3 hPa 0,0 l/m 0 min 0 min 0 W/m 6,4 km/h (2 Bft) 97,87 %
10.11.2022 21:34 9,8 C 8,9 C 5,6 C 87 % 1028,3 hPa 0,0 l/m 0 min 0 min 0 W/m 6,4 km/h (2 Bft) 97,87 %
10.11.2022 21:36 9,8 C 8,9 C 5,6 C 87 % 1028,4 hPa 0,0 l/m 0 min 0 min 0 W/m 6,4 km/h (2 Bft) 97,87 %
10.11.2022 21:38 9,7 C 8,3 C 5,6 C 87 % 1028,4 hPa 0,0 l/m 0 min 0 min 0 W/m 12,9 km/h (3 Bft) 100,00 %
10.11.2022 21:40 9,7 C 8,3 C 5,6 C 87 % 1028,5 hPa 0,0 l/m 0 min 0 min 0 W/m 12,9 km/h (3 Bft) 97,87 %
10.11.2022 21:42 9,7 C 8,3 C 5,6 C 87 % 1028,5 hPa 0,0 l/m 0 min 0 min 0 W/m 9,7 km/h (2 Bft) 97,87 %
10.11.2022 21:44 9,7 C 8,3 C 5,6 C 87 % 1028,6 hPa 0,0 l/m 0 min 0 min 0 W/m 6,4 km/h (2 Bft) 95,74 %
10.11.2022 21:46 9,6 C 8,3 C 5,6 C 87 % 1028,6 hPa 0,0 l/m 0 min 0 min 0 W/m 6,4 km/h (2 Bft) 97,87 %
10.11.2022 21:48 9,6 C 8,3 C 5,6 C 87 % 1028,6 hPa 0,0 l/m 0 min 0 min 0 W/m 12,9 km/h (3 Bft) 97,87 %
10.11.2022 21:50 9,6 C 8,3 C 5,6 C 88 % 1028,7 hPa 0,0 l/m 0 min 0 min 0 W/m 6,4 km/h (2 Bft) 100,00 %
10.11.2022 21:52 9,6 C 8,3 C 5,6 C 88 % 1028,6 hPa 0,0 l/m 0 min 0 min 0 W/m 6,4 km/h (2 Bft) 100,00 %
10.11.2022 21:54 9,5 C 8,3 C 5,6 C 88 % 1028,7 hPa 0,0 l/m 0 min 0 min 0 W/m 3,2 km/h (1 Bft) 100,00 %
10.11.2022 21:56 9,5 C 8,3 C 5,6 C 88 % 1028,7 hPa 0,0 l/m 0 min 0 min 0 W/m 6,4 km/h (2 Bft) 100,00 %
10.11.2022 21:58 9,4 C 8,3 C 5,6 C 88 % 1028,7 hPa 0,0 l/m 0 min 0 min 0 W/m 6,4 km/h (2 Bft) 100,00 %
10.11.2022 22:00 9,4 C 8,3 C 5,6 C 88 % 1028,8 hPa 0,0 l/m 0 min 0 min 0 W/m 3,2 km/h (1 Bft) 100,00 %
10.11.2022 22:02 9,4 C 8,3 C 5,6 C 88 % 1028,8 hPa 0,0 l/m 0 min 0 min 0 W/m 3,2 km/h (1 Bft) 97,83 %
10.11.2022 22:04 9,4 C 8,3 C 5,6 C 88 % 1028,8 hPa 0,0 l/m 0 min 0 min 0 W/m 6,4 km/h (2 Bft) 100,00 %
10.11.2022 22:06 9,4 C 8,3 C 5,6 C 88 % 1028,8 hPa 0,0 l/m 0 min 0 min 0 W/m 6,4 km/h (2 Bft) 98,31 %
10.11.2022 22:08 9,3 C 8,3 C 5,0 C 88 % 1028,8 hPa 0,0 l/m 0 min 0 min 0 W/m 6,4 km/h (2 Bft) 100,00 %
10.11.2022 22:10 9,3 C 8,3 C 5,0 C 88 % 1028,8 hPa 0,0 l/m 0 min 0 min 0 W/m 3,2 km/h (1 Bft) 97,87 %
10.11.2022 22:12 9,3 C 8,3 C 5,0 C 88 % 1028,9 hPa 0,0 l/m 0 min 0 min 0 W/m 6,4 km/h (2 Bft) 97,87 %
10.11.2022 22:14 9,3 C 8,3 C 5,0 C 88 % 1028,9 hPa 0,0 l/m 0 min 0 min 0 W/m 3,2 km/h (1 Bft) 95,65 %
10.11.2022 22:16 9,2 C 8,3 C 5,0 C 88 % 1028,9 hPa 0,0 l/m 0 min 0 min 0 W/m 3,2 km/h (1 Bft) 97,87 %
10.11.2022 22:18 9,2 C 8,3 C 5,0 C 88 % 1028,9 hPa 0,0 l/m 0 min 0 min 0 W/m 6,4 km/h (2 Bft) 97,87 %
10.11.2022 22:20 9,2 C 7,8 C 5,0 C 88 % 1028,9 hPa 0,0 l/m 0 min 0 min 0 W/m 6,4 km/h (2 Bft) 97,87 %
10.11.2022 22:22 9,2 C 7,8 C 5,0 C 88 % 1028,9 hPa 0,0 l/m 0 min 0 min 0 W/m 3,2 km/h (1 Bft) 53,49 %
10.11.2022 22:24 9,1 C 7,8 C 5,0 C 88 % 1029,0 hPa 0,0 l/m 0 min 0 min 0 W/m 3,2 km/h (1 Bft) 97,87 %
10.11.2022 22:26 9,1 C 7,8 C 5,0 C 88 % 1029,1 hPa 0,0 l/m 0 min 0 min 0 W/m 6,4 km/h (2 Bft) 97,83 %
10.11.2022 22:28 9,1 C 7,8 C 5,0 C 88 % 1029,1 hPa 0,0 l/m 0 min 0 min 0 W/m 6,4 km/h (2 Bft) 97,87 %
10.11.2022 22:30 9,1 C 7,8 C 5,0 C 88 % 1029,1 hPa 0,0 l/m 0 min 0 min 0 W/m 3,2 km/h (1 Bft) 95,74 %
10.11.2022 22:32 9,0 C 7,8 C 5,0 C 89 % 1029,1 hPa 0,0 l/m 0 min 0 min 0 W/m 3,2 km/h (1 Bft) 95,74 %
10.11.2022 22:34 8,9 C 7,8 C 5,0 C 89 % 1029,0 hPa 0,0 l/m 0 min 0 min 0 W/m 3,2 km/h (1 Bft) 98,08 %
10.11.2022 22:36 8,9 C 7,8 C 4,4 C 89 % 1029,0 hPa 0,0 l/m 0 min 0 min 0 W/m 3,2 km/h (1 Bft) 97,83 %
10.11.2022 22:38 8,9 C 7,8 C 4,4 C 89 % 1029,0 hPa 0,0 l/m 0 min 0 min 0 W/m 3,2 km/h (1 Bft) 95,74 %
10.11.2022 22:40 8,8 C 7,8 C 4,4 C 89 % 1029,0 hPa 0,0 l/m 0 min 0 min 0 W/m 3,2 km/h (1 Bft) 97,87 %
10.11.2022 22:42 8,8 C 7,2 C 4,4 C 89 % 1029,0 hPa 0,0 l/m 0 min 0 min 0 W/m 3,2 km/h (1 Bft) 97,87 %
10.11.2022 22:44 8,8 C 7,2 C 4,4 C 89 % 1029,1 hPa 0,0 l/m 0 min 0 min 0 W/m 3,2 km/h (1 Bft) 97,87 %
10.11.2022 22:46 8,7 C 7,2 C 4,4 C 89 % 1029,1 hPa 0,0 l/m 0 min 0 min 0 W/m 6,4 km/h (2 Bft) 95,74 %
10.11.2022 22:48 8,7 C 7,2 C 4,4 C 89 % 1029,2 hPa 0,0 l/m 0 min 0 min 0 W/m 6,4 km/h (2 Bft) 95,74 %
10.11.2022 22:50 8,7 C 7,2 C 4,4 C 89 % 1029,2 hPa 0,0 l/m 0 min 0 min 0 W/m 6,4 km/h (2 Bft) 97,83 %
10.11.2022 22:52 8,6 C 7,2 C 4,4 C 89 % 1029,2 hPa 0,0 l/m 0 min 0 min 0 W/m 3,2 km/h (1 Bft) 97,87 %
10.11.2022 22:54 8,6 C 7,2 C 4,4 C 89 % 1029,1 hPa 0,0 l/m 0 min 0 min 0 W/m 6,4 km/h (2 Bft) 95,74 %
10.11.2022 22:56 8,6 C 7,2 C 4,4 C 90 % 1029,1 hPa 0,0 l/m 0 min 0 min 0 W/m 6,4 km/h (2 Bft) 93,62 %
10.11.2022 22:58 8,5 C 7,2 C 4,4 C 90 % 1029,1 hPa 0,0 l/m 0 min 0 min 0 W/m 6,4 km/h (2 Bft) 95,74 %
10.11.2022 23:00 8,5 C 7,2 C 4,4 C 90 % 1029,1 hPa 0,0 l/m 0 min 0 min 0 W/m 3,2 km/h (1 Bft) 95,74 %
10.11.2022 23:02 8,4 C 7,2 C 4,4 C 90 % 1029,1 hPa 0,0 l/m 0 min 0 min 0 W/m 6,4 km/h (2 Bft) 95,65 %
10.11.2022 23:04 8,4 C 7,2 C 4,4 C 90 % 1029,1 hPa 0,0 l/m 0 min 0 min 0 W/m 6,4 km/h (2 Bft) 91,49 %
10.11.2022 23:06 8,4 C 7,2 C 4,4 C 90 % 1029,1 hPa 0,0 l/m 0 min 0 min 0 W/m 6,4 km/h (2 Bft) 91,49 %
10.11.2022 23:08 8,4 C 7,2 C 4,4 C 90 % 1029,1 hPa 0,0 l/m 0 min 0 min 0 W/m 6,4 km/h (2 Bft) 95,74 %
10.11.2022 23:10 8,3 C 7,2 C 4,4 C 90 % 1029,1 hPa 0,0 l/m 0 min 0 min 0 W/m 6,4 km/h (2 Bft) 95,74 %
10.11.2022 23:12 8,3 C 7,2 C 4,4 C 91 % 1029,0 hPa 0,0 l/m 0 min 0 min 0 W/m 12,9 km/h (3 Bft) 93,62 %
10.11.2022 23:14 8,3 C 7,2 C 4,4 C 91 % 1029,0 hPa 0,0 l/m 0 min 0 min 0 W/m 6,4 km/h (2 Bft) 93,48 %
10.11.2022 23:16 8,3 C 7,2 C 4,4 C 91 % 1029,0 hPa 0,0 l/m 0 min 0 min 0 W/m 6,4 km/h (2 Bft) 95,74 %
10.11.2022 23:18 8,3 C 7,2 C 4,4 C 91 % 1029,1 hPa 0,0 l/m 0 min 0 min 0 W/m 12,9 km/h (3 Bft) 93,62 %
10.11.2022 23:20 8,2 C 7,2 C 4,4 C 91 % 1029,1 hPa 0,0 l/m 0 min 0 min 0 W/m 6,4 km/h (2 Bft) 95,74 %
10.11.2022 23:22 8,2 C 7,2 C 4,4 C 91 % 1029,0 hPa 0,0 l/m 0 min 0 min 0 W/m 6,4 km/h (2 Bft) 91,49 %
10.11.2022 23:24 8,2 C 7,2 C 4,4 C 91 % 1029,0 hPa 0,0 l/m 0 min 0 min 0 W/m 12,9 km/h (3 Bft) 95,65 %
10.11.2022 23:26 8,2 C 7,2 C 4,4 C 91 % 1029,0 hPa 0,0 l/m 0 min 0 min 0 W/m 16,1 km/h (3 Bft) 93,62 %
10.11.2022 23:28 8,2 C 7,2 C 4,4 C 91 % 1029,0 hPa 0,0 l/m 0 min 0 min 0 W/m 6,4 km/h (2 Bft) 95,74 %
10.11.2022 23:30 8,2 C 7,2 C 4,4 C 91 % 1029,1 hPa 0,0 l/m 0 min 0 min 0 W/m 6,4 km/h (2 Bft) 100,00 %
10.11.2022 23:32 8,1 C 7,2 C 4,4 C 92 % 1029,2 hPa 0,0 l/m 0 min 0 min 0 W/m 6,4 km/h (2 Bft) 97,87 %
10.11.2022 23:34 8,1 C 7,2 C 4,4 C 92 % 1029,2 hPa 0,0 l/m 0 min 0 min 0 W/m 3,2 km/h (1 Bft) 100,00 %
10.11.2022 23:36 8,1 C 7,2 C 4,4 C 92 % 1029,3 hPa 0,0 l/m 0 min 0 min 0 W/m 6,4 km/h (2 Bft) 97,83 %
10.11.2022 23:38 8,1 C 7,2 C 4,4 C 92 % 1029,2 hPa 0,0 l/m 0 min 0 min 0 W/m 3,2 km/h (1 Bft) 100,00 %
10.11.2022 23:40 8,1 C 7,2 C 4,4 C 92 % 1029,3 hPa 0,0 l/m 0 min 0 min 0 W/m 6,4 km/h (2 Bft) 97,87 %
10.11.2022 23:42 8,1 C 7,2 C 4,4 C 92 % 1029,3 hPa 0,0 l/m 0 min 0 min 0 W/m 3,2 km/h (1 Bft) 100,00 %
10.11.2022 23:44 8,1 C 7,2 C 4,4 C 92 % 1029,3 hPa 0,0 l/m 0 min 0 min 0 W/m 3,2 km/h (1 Bft) 97,87 %
10.11.2022 23:46 8,1 C 7,2 C 4,4 C 92 % 1029,4 hPa 0,0 l/m 0 min 0 min 0 W/m 3,2 km/h (1 Bft) 100,00 %
10.11.2022 23:48 8,1 C 7,2 C 4,4 C 92 % 1029,4 hPa 0,0 l/m 0 min 0 min 0 W/m 6,4 km/h (2 Bft) 97,83 %
10.11.2022 23:50 8,0 C 7,2 C 4,4 C 92 % 1029,4 hPa 0,0 l/m 0 min 0 min 0 W/m 3,2 km/h (1 Bft) 97,87 %
10.11.2022 23:52 8,0 C 7,2 C 4,4 C 92 % 1029,3 hPa 0,0 l/m 0 min 0 min 0 W/m 6,4 km/h (2 Bft) 100,00 %
10.11.2022 23:54 8,0 C 7,2 C 4,4 C 92 % 1029,3 hPa 0,0 l/m 0 min 0 min 0 W/m 6,4 km/h (2 Bft) 100,00 %
10.11.2022 23:56 8,0 C 7,2 C 4,4 C 92 % 1029,3 hPa 0,0 l/m 0 min 0 min 0 W/m 6,4 km/h (2 Bft) 97,87 %
10.11.2022 23:58 8,0 C 7,2 C 4,4 C 92 % 1029,3 hPa 0,0 l/m 0 min 0 min 0 W/m 6,4 km/h (2 Bft) 100,00 %
_ Min-Zeit 23:50 22:42 22:36 15:12 00:00 - - - - 16:32 05:30
Minimum _ 8,0 C 7,2 C 4,4 C 71 % 1017,2 hPa - - - - 3,2 km/h (1 Bft) 40,00 %
_ Max-Zeit 15:02 10:24 13:44 06:00 23:46 00:00 09:30 00:00 13:14 04:26 00:16
Maximum _ 15,8 C 18,9 C 10,6 C 93 % 1029,4 hPa 0,0 l/m 2 min 0 min 363 W/m 32,2 km/h
S-SW (5 Bft)
100,00 %
Durchschnitt _ 11,4 C 10,8 C 7,1 C 86 % 1024,3 hPa #0,0 l/m #3:36 h #0 min. 129 W/m 14,5 km/h (3 Bft) 97,11 %
© 2022 W. Hausmann